Wetterdaten: Samstag, 06.06.2015
Datum Zeit Temp. Aussen +5cm Feuchte Auss BlattFeu 1 Luftdruck Regen Sonnenschein Regendauer Solar Windben
06.06.2015 00:00 22,3 C 20,0 C 71 % 15 lf 1017,2 hPa 0,0 l/m 0 min 2 min 0 W/m 12,6 km/h (3 Bft)
06.06.2015 00:02 22,3 C 19,4 C 72 % 15 lf 1017,0 hPa 0,0 l/m 0 min 2 min 0 W/m 8,4 km/h (2 Bft)
06.06.2015 00:06 22,3 C 18,3 C 73 % 15 lf 1017,0 hPa 0,0 l/m 0 min 2 min 0 W/m 16,7 km/h (3 Bft)
06.06.2015 00:10 22,2 C 18,3 C 74 % 15 lf 1016,9 hPa 0,0 l/m 0 min 0 min 0 W/m 16,7 km/h (3 Bft)
06.06.2015 00:12 22,2 C 18,3 C 74 % 15 lf 1016,9 hPa 0,0 l/m 0 min 0 min 0 W/m 10,5 km/h (2 Bft)
06.06.2015 00:14 22,2 C 18,3 C 74 % 15 lf 1016,9 hPa 0,0 l/m 0 min 0 min 0 W/m 10,5 km/h (2 Bft)
06.06.2015 00:16 22,1 C 18,3 C 74 % 15 lf 1016,8 hPa 0,0 l/m 0 min 0 min 0 W/m 10,5 km/h (2 Bft)
06.06.2015 00:18 22,1 C 18,3 C 75 % 15 lf 1016,6 hPa 0,0 l/m 0 min 0 min 0 W/m 6,3 km/h (2 Bft)
06.06.2015 00:20 22,1 C 18,3 C 75 % 15 lf 1016,6 hPa 0,0 l/m 0 min 0 min 0 W/m 8,4 km/h (2 Bft)
06.06.2015 00:22 22,0 C 18,3 C 75 % 15 lf 1016,6 hPa 0,0 l/m 0 min 2 min 0 W/m 6,3 km/h (2 Bft)
06.06.2015 00:24 22,0 C 18,3 C 75 % 15 lf 1016,7 hPa 0,0 l/m 0 min 2 min 0 W/m 6,3 km/h (2 Bft)
06.06.2015 00:26 22,0 C 18,3 C 76 % 15 lf 1016,8 hPa 0,0 l/m 0 min 2 min 0 W/m 10,5 km/h (2 Bft)
06.06.2015 00:28 21,9 C 18,3 C 77 % 15 lf 1017,4 hPa 0,0 l/m 0 min 2 min 0 W/m 16,7 km/h (3 Bft)
06.06.2015 00:30 21,9 C 17,8 C 77 % 15 lf 1017,8 hPa 0,0 l/m 0 min 2 min 0 W/m 31,4 km/h (5 Bft)
06.06.2015 00:32 21,8 C 17,8 C 78 % 15 lf 1018,8 hPa 0,2 l/m 0 min 2 min 0 W/m 27,2 km/h (4 Bft)
06.06.2015 00:34 21,7 C 17,2 C 79 % 15 lf 1018,4 hPa 0,2 l/m 0 min 2 min 0 W/m 25,1 km/h (4 Bft)
06.06.2015 00:36 21,7 C 17,2 C 80 % 15 lf 1017,4 hPa 1,8 l/m 0 min 2 min 0 W/m 16,7 km/h (3 Bft)
06.06.2015 00:40 21,4 C 17,2 C 83 % 15 lf 1017,1 hPa 0,2 l/m 0 min 2 min 0 W/m 23,0 km/h (4 Bft)
06.06.2015 00:42 21,3 C 17,2 C 83 % 15 lf 1016,9 hPa 0,0 l/m 0 min 2 min 0 W/m 16,7 km/h (3 Bft)
06.06.2015 00:44 21,1 C 17,2 C 84 % 15 lf 1016,8 hPa 0,0 l/m 0 min 2 min 0 W/m 12,6 km/h (3 Bft)
06.06.2015 00:46 21,0 C 17,2 C 84 % 15 lf 1016,6 hPa 0,2 l/m 0 min 2 min 0 W/m 14,6 km/h (3 Bft)
06.06.2015 00:48 21,0 C 17,2 C 85 % 15 lf 1016,5 hPa 0,0 l/m 0 min 2 min 0 W/m 12,6 km/h (3 Bft)
06.06.2015 00:50 20,9 C 17,2 C 85 % 15 lf 1016,4 hPa 0,0 l/m 0 min 2 min 0 W/m 16,7 km/h (3 Bft)
06.06.2015 00:52 20,8 C 17,2 C 85 % 15 lf 1016,4 hPa 0,0 l/m 0 min 2 min 0 W/m 18,8 km/h (3 Bft)
06.06.2015 00:54 20,7 C 17,2 C 86 % 15 lf 1016,2 hPa 0,0 l/m 0 min 0 min 0 W/m 16,7 km/h (3 Bft)
06.06.2015 00:56 20,6 C 17,2 C 86 % 15 lf 1016,0 hPa 0,0 l/m 0 min 0 min 0 W/m 16,7 km/h (3 Bft)
06.06.2015 00:58 20,4 C 17,2 C 86 % 15 lf 1016,1 hPa 0,0 l/m 0 min 0 min 0 W/m 14,6 km/h (3 Bft)
06.06.2015 01:00 20,4 C 17,2 C 87 % 15 lf 1016,0 hPa 0,0 l/m 0 min 0 min 0 W/m 18,8 km/h (3 Bft)
06.06.2015 01:02 20,3 C 17,2 C 87 % 15 lf 1015,8 hPa 0,0 l/m 0 min 0 min 0 W/m 20,9 km/h (4 Bft)
06.06.2015 01:04 20,2 C 17,2 C 88 % 15 lf 1015,9 hPa 0,0 l/m 0 min 0 min 0 W/m 16,7 km/h (3 Bft)
06.06.2015 01:06 20,1 C 17,2 C 88 % 15 lf 1015,9 hPa 0,0 l/m 0 min 0 min 0 W/m 10,5 km/h (2 Bft)
06.06.2015 01:08 20,1 C 17,2 C 88 % 15 lf 1016,1 hPa 0,0 l/m 0 min 0 min 0 W/m 14,6 km/h (3 Bft)
06.06.2015 01:10 20,0 C 17,2 C 89 % 15 lf 1016,1 hPa 0,0 l/m 0 min 0 min 0 W/m 10,5 km/h (2 Bft)
06.06.2015 01:12 19,9 C 17,2 C 89 % 15 lf 1016,0 hPa 0,0 l/m 0 min 0 min 0 W/m 16,7 km/h (3 Bft)
06.06.2015 01:14 19,9 C 17,2 C 89 % 15 lf 1015,8 hPa 0,0 l/m 0 min 0 min 0 W/m 16,7 km/h (3 Bft)
06.06.2015 01:16 19,8 C 17,2 C 90 % 15 lf 1015,9 hPa 0,0 l/m 0 min 0 min 0 W/m 10,5 km/h (2 Bft)
06.06.2015 01:18 19,8 C 17,2 C 90 % 15 lf 1016,3 hPa 0,0 l/m 0 min 0 min 0 W/m 12,6 km/h (3 Bft)
06.06.2015 01:20 19,7 C 17,2 C 90 % 15 lf 1016,6 hPa 0,0 l/m 0 min 0 min 0 W/m 16,7 km/h (3 Bft)
06.06.2015 01:22 19,7 C 17,2 C 90 % 15 lf 1016,5 hPa 0,0 l/m 0 min 0 min 0 W/m 14,6 km/h (3 Bft)
06.06.2015 01:24 19,6 C 17,2 C 91 % 15 lf 1016,4 hPa 0,0 l/m 0 min 0 min 0 W/m 6,3 km/h (2 Bft)
06.06.2015 01:26 19,6 C 17,2 C 91 % 15 lf 1016,4 hPa 0,0 l/m 0 min 0 min 0 W/m 6,3 km/h (2 Bft)
06.06.2015 01:28 19,6 C 17,2 C 91 % 15 lf 1016,4 hPa 0,0 l/m 0 min 0 min 0 W/m 8,4 km/h (2 Bft)
06.06.2015 01:30 19,5 C 17,2 C 91 % 15 lf 1016,3 hPa 0,0 l/m 0 min 0 min 0 W/m 12,6 km/h (3 Bft)
06.06.2015 01:32 19,4 C 17,2 C 91 % 15 lf 1016,3 hPa 0,0 l/m 0 min 0 min 0 W/m 12,6 km/h (3 Bft)
06.06.2015 01:34 19,4 C 17,2 C 91 % 15 lf 1016,4 hPa 0,0 l/m 0 min 0 min 0 W/m 14,6 km/h (3 Bft)
06.06.2015 01:36 19,3 C 16,7 C 92 % 15 lf 1016,3 hPa 0,0 l/m 0 min 0 min 0 W/m 18,8 km/h (3 Bft)
06.06.2015 01:38 19,3 C 16,7 C 92 % 15 lf 1016,3 hPa 0,0 l/m 0 min 0 min 0 W/m 14,6 km/h (3 Bft)
06.06.2015 01:40 19,3 C 16,7 C 92 % 15 lf 1016,4 hPa 0,0 l/m 0 min 0 min 0 W/m 16,7 km/h (3 Bft)
06.06.2015 01:42 19,2 C 16,7 C 92 % 15 lf 1016,4 hPa 0,0 l/m 0 min 0 min 0 W/m 10,5 km/h (2 Bft)
06.06.2015 01:44 19,2 C 16,7 C 92 % 15 lf 1016,4 hPa 0,0 l/m 0 min 0 min 0 W/m 8,4 km/h (2 Bft)
06.06.2015 01:46 19,2 C 16,7 C 92 % 15 lf 1016,5 hPa 0,0 l/m 0 min 0 min 0 W/m 10,5 km/h (2 Bft)
06.06.2015 01:48 19,2 C 16,7 C 92 % 15 lf 1016,6 hPa 0,0 l/m 0 min 0 min 0 W/m 8,4 km/h (2 Bft)
06.06.2015 01:50 19,1 C 16,7 C 93 % 15 lf 1016,7 hPa 0,0 l/m 0 min 0 min 0 W/m 10,5 km/h (2 Bft)
06.06.2015 01:52 19,1 C 16,7 C 93 % 15 lf 1016,5 hPa 0,0 l/m 0 min 0 min 0 W/m 8,4 km/h (2 Bft)
06.06.2015 01:54 19,1 C 16,7 C 93 % 15 lf 1016,6 hPa 0,0 l/m 0 min 0 min 0 W/m 10,5 km/h (2 Bft)
06.06.2015 01:56 19,0 C 16,7 C 93 % 15 lf 1016,6 hPa 0,0 l/m 0 min 0 min 0 W/m 14,6 km/h (3 Bft)
06.06.2015 01:58 19,0 C 16,7 C 93 % 15 lf 1016,7 hPa 0,0 l/m 0 min 0 min 0 W/m 14,6 km/h (3 Bft)
06.06.2015 02:00 18,9 C 16,7 C 93 % 15 lf 1016,7 hPa 0,0 l/m 0 min 0 min 0 W/m 8,4 km/h (2 Bft)
06.06.2015 02:02 18,9 C 16,7 C 93 % 15 lf 1016,7 hPa 0,0 l/m 0 min 0 min 0 W/m 12,6 km/h (3 Bft)
06.06.2015 02:04 18,9 C 16,7 C 93 % 15 lf 1016,8 hPa 0,0 l/m 0 min 0 min 0 W/m 10,5 km/h (2 Bft)
06.06.2015 02:06 18,9 C 16,7 C 93 % 15 lf 1017,0 hPa 0,0 l/m 0 min 0 min 0 W/m 6,3 km/h (2 Bft)
06.06.2015 02:08 18,8 C 16,7 C 93 % 15 lf 1017,3 hPa 0,0 l/m 0 min 0 min 0 W/m 10,5 km/h (2 Bft)
06.06.2015 02:10 18,8 C 16,7 C 93 % 15 lf 1017,5 hPa 0,0 l/m 0 min 0 min 0 W/m 10,5 km/h (2 Bft)
06.06.2015 02:12 18,8 C 16,7 C 93 % 15 lf 1017,5 hPa 0,0 l/m 0 min 0 min 0 W/m 14,6 km/h (3 Bft)
06.06.2015 02:14 18,8 C 16,7 C 93 % 15 lf 1017,5 hPa 0,0 l/m 0 min 0 min 0 W/m 14,6 km/h (3 Bft)
06.06.2015 02:16 18,8 C 16,7 C 94 % 15 lf 1017,4 hPa 0,0 l/m 0 min 0 min 0 W/m 12,6 km/h (3 Bft)
06.06.2015 02:18 18,8 C 16,7 C 94 % 15 lf 1017,5 hPa 0,0 l/m 0 min 0 min 0 W/m 10,5 km/h (2 Bft)
06.06.2015 02:20 18,8 C 16,7 C 94 % 15 lf 1017,5 hPa 0,0 l/m 0 min 0 min 0 W/m 10,5 km/h (2 Bft)
06.06.2015 02:22 18,8 C 16,7 C 94 % 15 lf 1017,5 hPa 0,0 l/m 0 min 0 min 0 W/m 4,2 km/h (1 Bft)
06.06.2015 02:24 18,7 C 16,7 C 94 % 15 lf 1017,5 hPa 0,0 l/m 0 min 0 min 0 W/m 6,3 km/h (2 Bft)
06.06.2015 02:26 18,7 C 16,7 C 94 % 15 lf 1017,7 hPa 0,0 l/m 0 min 0 min 0 W/m 4,2 km/h (1 Bft)
06.06.2015 02:28 18,7 C 16,7 C 94 % 15 lf 1017,7 hPa 0,0 l/m 0 min 0 min 0 W/m 6,3 km/h (2 Bft)
06.06.2015 02:30 18,7 C 16,7 C 94 % 15 lf 1017,6 hPa 0,0 l/m 0 min 0 min 0 W/m 4,2 km/h (1 Bft)
06.06.2015 02:32 18,7 C 16,7 C 94 % 15 lf 1017,5 hPa 0,0 l/m 0 min 0 min 0 W/m 8,4 km/h (2 Bft)
06.06.2015 02:34 18,7 C 16,7 C 94 % 15 lf 1017,5 hPa 0,0 l/m 0 min 0 min 0 W/m 6,3 km/h (2 Bft)
06.06.2015 02:36 18,7 C 16,7 C 94 % 15 lf 1017,6 hPa 0,0 l/m 0 min 0 min 0 W/m 6,3 km/h (2 Bft)
06.06.2015 02:38 18,6 C 16,7 C 94 % 15 lf 1017,7 hPa 0,0 l/m 0 min 0 min 0 W/m 4,2 km/h (1 Bft)
06.06.2015 02:40 18,6 C 16,7 C 94 % 15 lf 1017,7 hPa 0,0 l/m 0 min 0 min 0 W/m 2,1 km/h (1 Bft)
06.06.2015 02:42 18,6 C 16,7 C 94 % 15 lf 1017,7 hPa 0,0 l/m 0 min 0 min 0 W/m 2,1 km/h (1 Bft)
06.06.2015 02:44 18,6 C 16,7 C 94 % 15 lf 1017,5 hPa 0,0 l/m 0 min 0 min 0 W/m 4,2 km/h (1 Bft)
06.06.2015 02:46 18,6 C 16,7 C 94 % 15 lf 1017,5 hPa 0,0 l/m 0 min 0 min 0 W/m 2,1 km/h (1 Bft)
06.06.2015 02:48 18,6 C 16,7 C 94 % 15 lf 1017,5 hPa 0,0 l/m 0 min 0 min 0 W/m 2,1 km/h (1 Bft)
06.06.2015 02:50 18,5 C 16,7 C 94 % 15 lf 1017,6 hPa 0,0 l/m 0 min 0 min 0 W/m 4,2 km/h (1 Bft)
06.06.2015 02:52 18,5 C 16,7 C 94 % 15 lf 1017,6 hPa 0,0 l/m 0 min 0 min 0 W/m 6,3 km/h (2 Bft)
06.06.2015 02:54 18,5 C 16,7 C 94 % 15 lf 1017,6 hPa 0,0 l/m 0 min 0 min 0 W/m 4,2 km/h (1 Bft)
06.06.2015 02:56 18,5 C 16,7 C 94 % 15 lf 1017,6 hPa 0,0 l/m 0 min 0 min 0 W/m 6,3 km/h (2 Bft)
06.06.2015 02:58 18,5 C 16,7 C 94 % 15 lf 1017,6 hPa 0,0 l/m 0 min 0 min 0 W/m 4,2 km/h (1 Bft)
06.06.2015 03:00 18,4 C 16,7 C 94 % 15 lf 1017,5 hPa 0,0 l/m 0 min 0 min 0 W/m 4,2 km/h (1 Bft)
06.06.2015 03:02 18,4 C 16,7 C 94 % 15 lf 1017,4 hPa 0,0 l/m 0 min 0 min 0 W/m 4,2 km/h (1 Bft)
06.06.2015 03:04 18,4 C 16,7 C 94 % 15 lf 1017,4 hPa 0,0 l/m 0 min 0 min 0 W/m 4,2 km/h (1 Bft)
06.06.2015 03:06 18,4 C 16,7 C 94 % 15 lf 1017,4 hPa 0,0 l/m 0 min 0 min 0 W/m 2,1 km/h (1 Bft)
06.06.2015 03:08 18,4 C 16,7 C 94 % 15 lf 1017,5 hPa 0,0 l/m 0 min 0 min 0 W/m 4,2 km/h (1 Bft)
06.06.2015 03:10 18,4 C 16,7 C 94 % 15 lf 1017,4 hPa 0,0 l/m 0 min 0 min 0 W/m 6,3 km/h (2 Bft)
06.06.2015 03:12 18,4 C 16,7 C 94 % 15 lf 1017,3 hPa 0,0 l/m 0 min 0 min 0 W/m 6,3 km/h (2 Bft)
06.06.2015 03:14 18,4 C 16,7 C 94 % 15 lf 1017,3 hPa 0,0 l/m 0 min 0 min 0 W/m 6,3 km/h (2 Bft)
06.06.2015 03:16 18,4 C 16,7 C 95 % 15 lf 1017,3 hPa 0,0 l/m 0 min 0 min 0 W/m 6,3 km/h (2 Bft)
06.06.2015 03:18 18,4 C 16,7 C 95 % 15 lf 1017,2 hPa 0,0 l/m 0 min 0 min 0 W/m 6,3 km/h (2 Bft)
06.06.2015 03:20 18,4 C 16,7 C 95 % 15 lf 1017,1 hPa 0,0 l/m 0 min 0 min 0 W/m 6,3 km/h (2 Bft)
06.06.2015 03:22 18,4 C 16,7 C 95 % 15 lf 1017,0 hPa 0,0 l/m 0 min 0 min 0 W/m 6,3 km/h (2 Bft)
06.06.2015 03:24 18,4 C 16,7 C 95 % 15 lf 1017,0 hPa 0,0 l/m 0 min 0 min 0 W/m 4,2 km/h (1 Bft)
06.06.2015 03:26 18,4 C 16,7 C 95 % 15 lf 1017,1 hPa 0,0 l/m 0 min 0 min 0 W/m 6,3 km/h (2 Bft)
06.06.2015 03:28 18,4 C 16,7 C 95 % 15 lf 1017,1 hPa 0,0 l/m 0 min 0 min 0 W/m 8,4 km/h (2 Bft)
06.06.2015 03:30 18,3 C 16,7 C 95 % 15 lf 1017,1 hPa 0,0 l/m 0 min 0 min 0 W/m 10,5 km/h (2 Bft)
06.06.2015 03:32 18,3 C 16,7 C 95 % 15 lf 1017,2 hPa 0,0 l/m 0 min 0 min 0 W/m 6,3 km/h (2 Bft)
06.06.2015 03:34 18,3 C 16,7 C 95 % 15 lf 1017,1 hPa 0,0 l/m 0 min 0 min 0 W/m 6,3 km/h (2 Bft)
06.06.2015 03:36 18,3 C 16,7 C 95 % 15 lf 1017,2 hPa 0,0 l/m 0 min 0 min 0 W/m 8,4 km/h (2 Bft)
06.06.2015 03:38 18,3 C 16,1 C 95 % 15 lf 1017,2 hPa 0,0 l/m 0 min 0 min 0 W/m 10,5 km/h (2 Bft)
06.06.2015 03:40 18,3 C 16,1 C 95 % 15 lf 1017,2 hPa 0,0 l/m 0 min 0 min 0 W/m 8,4 km/h (2 Bft)
06.06.2015 03:42 18,3 C 16,7 C 95 % 15 lf 1017,2 hPa 0,0 l/m 0 min 0 min 0 W/m 8,4 km/h (2 Bft)
06.06.2015 03:44 18,3 C 16,7 C 95 % 15 lf 1017,1 hPa 0,0 l/m 0 min 0 min 0 W/m 6,3 km/h (2 Bft)
06.06.2015 03:46 18,3 C 16,7 C 95 % 15 lf 1017,0 hPa 0,0 l/m 0 min 0 min 0 W/m 6,3 km/h (2 Bft)
06.06.2015 03:48 18,2 C 16,7 C 95 % 15 lf 1016,9 hPa 0,0 l/m 0 min 0 min 0 W/m 6,3 km/h (2 Bft)
06.06.2015 03:50 18,2 C 16,7 C 95 % 15 lf 1016,9 hPa 0,0 l/m 0 min 0 min 0 W/m 6,3 km/h (2 Bft)
06.06.2015 03:52 18,2 C 16,7 C 95 % 15 lf 1016,9 hPa 0,0 l/m 0 min 0 min 0 W/m 6,3 km/h (2 Bft)
06.06.2015 03:54 18,2 C 16,1 C 95 % 15 lf 1016,9 hPa 0,0 l/m 0 min 0 min 0 W/m 4,2 km/h (1 Bft)
06.06.2015 03:56 18,2 C 16,1 C 95 % 15 lf 1016,9 hPa 0,0 l/m 0 min 0 min 0 W/m 6,3 km/h (2 Bft)
06.06.2015 03:58 18,2 C 16,1 C 95 % 15 lf 1017,0 hPa 0,0 l/m 0 min 0 min 0 W/m 4,2 km/h (1 Bft)
06.06.2015 04:00 18,2 C 16,1 C 95 % 15 lf 1017,1 hPa 0,0 l/m 0 min 0 min 0 W/m 4,2 km/h (1 Bft)
06.06.2015 04:02 18,2 C 16,1 C 95 % 15 lf 1017,1 hPa 0,0 l/m 0 min 0 min 0 W/m 4,2 km/h (1 Bft)
06.06.2015 04:04 18,2 C 16,1 C 95 % 15 lf 1017,1 hPa 0,0 l/m 0 min 0 min 0 W/m 4,2 km/h (1 Bft)
06.06.2015 04:06 18,2 C 16,1 C 95 % 15 lf 1017,0 hPa 0,0 l/m 0 min 0 min 0 W/m 8,4 km/h (2 Bft)
06.06.2015 04:08 18,2 C 16,1 C 96 % 15 lf 1017,0 hPa 0,0 l/m 0 min 0 min 0 W/m 6,3 km/h (2 Bft)
06.06.2015 04:10 18,2 C 16,1 C 96 % 15 lf 1017,0 hPa 0,0 l/m 0 min 0 min 0 W/m 6,3 km/h (2 Bft)
06.06.2015 04:12 18,1 C 16,1 C 96 % 15 lf 1017,0 hPa 0,0 l/m 0 min 0 min 0 W/m 6,3 km/h (2 Bft)
06.06.2015 04:14 18,1 C 16,1 C 96 % 15 lf 1017,1 hPa 0,0 l/m 0 min 0 min 0 W/m 8,4 km/h (2 Bft)
06.06.2015 04:16 18,1 C 16,7 C 96 % 15 lf 1017,2 hPa 0,0 l/m 0 min 0 min 0 W/m 6,3 km/h (2 Bft)
06.06.2015 04:18 18,1 C 16,7 C 96 % 15 lf 1017,3 hPa 0,0 l/m 0 min 0 min 0 W/m 6,3 km/h (2 Bft)
06.06.2015 04:20 18,1 C 16,7 C 96 % 15 lf 1017,3 hPa 0,0 l/m 0 min 0 min 0 W/m 6,3 km/h (2 Bft)
06.06.2015 04:22 18,1 C 16,1 C 96 % 15 lf 1017,3 hPa 0,0 l/m 0 min 0 min 0 W/m 6,3 km/h (2 Bft)
06.06.2015 04:24 18,1 C 16,1 C 96 % 15 lf 1017,3 hPa 0,0 l/m 0 min 0 min 0 W/m 6,3 km/h (2 Bft)
06.06.2015 04:26 18,1 C 16,1 C 96 % 15 lf 1017,3 hPa 0,0 l/m 0 min 0 min 0 W/m 6,3 km/h (2 Bft)
06.06.2015 04:28 18,1 C 16,1 C 96 % 15 lf 1017,4 hPa 0,0 l/m 0 min 0 min 0 W/m 6,3 km/h (2 Bft)
06.06.2015 04:30 18,1 C 16,1 C 96 % 15 lf 1017,5 hPa 0,0 l/m 0 min 0 min 0 W/m 6,3 km/h (2 Bft)
06.06.2015 04:32 18,1 C 16,1 C 96 % 15 lf 1017,5 hPa 0,0 l/m 0 min 0 min 0 W/m 6,3 km/h (2 Bft)
06.06.2015 04:34 18,0 C 16,1 C 96 % 15 lf 1017,5 hPa 0,0 l/m 0 min 0 min 0 W/m 8,4 km/h (2 Bft)
06.06.2015 04:36 18,0 C 16,1 C 96 % 15 lf 1017,5 hPa 0,0 l/m 0 min 0 min 0 W/m 8,4 km/h (2 Bft)
06.06.2015 04:38 18,0 C 16,1 C 96 % 15 lf 1017,6 hPa 0,0 l/m 0 min 0 min 0 W/m 12,6 km/h (3 Bft)
06.06.2015 04:40 18,0 C 16,7 C 96 % 15 lf 1017,7 hPa 0,0 l/m 0 min 0 min 0 W/m 12,6 km/h (3 Bft)
06.06.2015 04:42 18,0 C 16,7 C 96 % 15 lf 1017,7 hPa 0,0 l/m 0 min 0 min 0 W/m 12,6 km/h (3 Bft)
06.06.2015 04:44 18,0 C 16,7 C 96 % 15 lf 1017,7 hPa 0,0 l/m 0 min 0 min 0 W/m 10,5 km/h (2 Bft)
06.06.2015 04:46 18,0 C 16,7 C 96 % 15 lf 1017,6 hPa 0,0 l/m 0 min 0 min 0 W/m 14,6 km/h (3 Bft)
06.06.2015 04:48 18,0 C 16,7 C 96 % 15 lf 1017,7 hPa 0,0 l/m 0 min 0 min 0 W/m 8,4 km/h (2 Bft)
06.06.2015 04:50 18,1 C 16,7 C 96 % 15 lf 1017,7 hPa 0,0 l/m 0 min 0 min 0 W/m 10,5 km/h (2 Bft)
06.06.2015 04:52 18,1 C 16,7 C 96 % 15 lf 1017,7 hPa 0,0 l/m 0 min 0 min 0 W/m 12,6 km/h (3 Bft)
06.06.2015 04:54 18,1 C 16,7 C 96 % 15 lf 1017,8 hPa 0,0 l/m 0 min 0 min 0 W/m 14,6 km/h (3 Bft)
06.06.2015 04:56 18,1 C 16,7 C 96 % 15 lf 1017,9 hPa 0,0 l/m 0 min 0 min 0 W/m 20,9 km/h (4 Bft)
06.06.2015 04:58 18,1 C 16,7 C 96 % 15 lf 1017,8 hPa 0,0 l/m 0 min 0 min 0 W/m 12,6 km/h (3 Bft)
06.06.2015 05:00 18,1 C 16,7 C 97 % 15 lf 1017,8 hPa 0,0 l/m 0 min 0 min 0 W/m 16,7 km/h (3 Bft)
06.06.2015 05:02 18,2 C 16,7 C 97 % 15 lf 1017,9 hPa 0,0 l/m 0 min 0 min 0 W/m 18,8 km/h (3 Bft)
06.06.2015 05:04 18,2 C 16,7 C 97 % 15 lf 1017,9 hPa 0,0 l/m 0 min 0 min 0 W/m 12,6 km/h (3 Bft)
06.06.2015 05:06 18,2 C 16,7 C 97 % 15 lf 1017,9 hPa 0,0 l/m 0 min 0 min 0 W/m 16,7 km/h (3 Bft)
06.06.2015 05:08 18,2 C 16,7 C 97 % 15 lf 1017,9 hPa 0,0 l/m 0 min 0 min 0 W/m 10,5 km/h (2 Bft)
06.06.2015 05:10 18,2 C 16,7 C 97 % 15 lf 1018,0 hPa 0,0 l/m 0 min 0 min 0 W/m 10,5 km/h (2 Bft)
06.06.2015 05:12 18,2 C 16,7 C 97 % 15 lf 1017,9 hPa 0,0 l/m 0 min 0 min 0 W/m 12,6 km/h (3 Bft)
06.06.2015 05:14 18,2 C 16,7 C 97 % 15 lf 1017,9 hPa 0,0 l/m 0 min 0 min 0 W/m 10,5 km/h (2 Bft)
06.06.2015 05:16 18,2 C 16,7 C 97 % 15 lf 1017,7 hPa 0,0 l/m 0 min 0 min 0 W/m 6,3 km/h (2 Bft)
06.06.2015 05:18 18,2 C 16,7 C 97 % 15 lf 1017,7 hPa 0,0 l/m 0 min 0 min 0 W/m 4,2 km/h (1 Bft)
06.06.2015 05:20 18,2 C 16,7 C 97 % 15 lf 1017,8 hPa 0,0 l/m 0 min 0 min 0 W/m 8,4 km/h (2 Bft)
06.06.2015 05:22 18,2 C 16,7 C 97 % 15 lf 1017,7 hPa 0,0 l/m 0 min 0 min 0 W/m 6,3 km/h (2 Bft)
06.06.2015 05:24 18,2 C 16,7 C 97 % 15 lf 1017,8 hPa 0,0 l/m 0 min 0 min 0 W/m 6,3 km/h (2 Bft)
06.06.2015 05:26 18,2 C 16,7 C 97 % 15 lf 1017,8 hPa 0,0 l/m 0 min 0 min 0 W/m 6,3 km/h (2 Bft)
06.06.2015 05:28 18,2 C 16,7 C 97 % 15 lf 1017,8 hPa 0,0 l/m 0 min 0 min 0 W/m 8,4 km/h (2 Bft)
06.06.2015 05:30 18,2 C 16,7 C 97 % 15 lf 1017,9 hPa 0,0 l/m 0 min 0 min 0 W/m 6,3 km/h (2 Bft)
06.06.2015 05:32 18,2 C 16,7 C 97 % 15 lf 1018,0 hPa 0,0 l/m 0 min 0 min 0 W/m 10,5 km/h (2 Bft)
06.06.2015 05:34 18,2 C 16,7 C 97 % 15 lf 1018,0 hPa 0,0 l/m 0 min 0 min 0 W/m 8,4 km/h (2 Bft)
06.06.2015 05:36 18,2 C 16,7 C 97 % 15 lf 1018,0 hPa 0,0 l/m 0 min 0 min 0 W/m 16,7 km/h (3 Bft)
06.06.2015 05:38 18,2 C 16,7 C 97 % 15 lf 1018,0 hPa 0,0 l/m 0 min 0 min 0 W/m 16,7 km/h (3 Bft)
06.06.2015 05:40 18,2 C 16,7 C 97 % 15 lf 1018,1 hPa 0,0 l/m 0 min 0 min 0 W/m 14,6 km/h (3 Bft)
06.06.2015 05:42 18,2 C 16,7 C 97 % 15 lf 1018,1 hPa 0,0 l/m 0 min 0 min 2 W/m 12,6 km/h (3 Bft)
06.06.2015 05:44 18,2 C 16,7 C 97 % 15 lf 1018,2 hPa 0,0 l/m 0 min 0 min 5 W/m 12,6 km/h (3 Bft)
06.06.2015 05:46 18,2 C 16,7 C 97 % 15 lf 1018,2 hPa 0,0 l/m 0 min 0 min 5 W/m 16,7 km/h (3 Bft)
06.06.2015 05:48 18,2 C 16,7 C 97 % 15 lf 1018,3 hPa 0,0 l/m 0 min 0 min 5 W/m 12,6 km/h (3 Bft)
06.06.2015 05:50 18,2 C 16,7 C 97 % 15 lf 1018,2 hPa 0,0 l/m 0 min 0 min 5 W/m 10,5 km/h (2 Bft)
06.06.2015 05:52 18,2 C 16,7 C 97 % 15 lf 1018,2 hPa 0,0 l/m 0 min 0 min 7 W/m 16,7 km/h (3 Bft)
06.06.2015 05:54 18,2 C 16,7 C 97 % 15 lf 1018,2 hPa 0,0 l/m 0 min 0 min 8 W/m 23,0 km/h (4 Bft)
06.06.2015 05:56 18,2 C 16,7 C 97 % 15 lf 1018,2 hPa 0,0 l/m 0 min 0 min 10 W/m 23,0 km/h (4 Bft)
06.06.2015 05:58 18,2 C 16,7 C 97 % 15 lf 1018,2 hPa 0,0 l/m 0 min 0 min 11 W/m 20,9 km/h (4 Bft)
06.06.2015 06:00 18,2 C 16,7 C 97 % 15 lf 1018,4 hPa 0,0 l/m 0 min 0 min 13 W/m 18,8 km/h (3 Bft)
06.06.2015 06:02 18,2 C 16,7 C 97 % 15 lf 1018,4 hPa 0,0 l/m 0 min 0 min 16 W/m 16,7 km/h (3 Bft)
06.06.2015 06:06 18,1 C 16,7 C 97 % 15 lf 1018,5 hPa 0,0 l/m 0 min 0 min 17 W/m 27,2 km/h (4 Bft)
06.06.2015 06:08 18,1 C 16,7 C 97 % 15 lf 1018,6 hPa 0,0 l/m 0 min 0 min 20 W/m 8,4 km/h (2 Bft)
06.06.2015 06:10 18,1 C 16,7 C 97 % 15 lf 1018,6 hPa 0,0 l/m 0 min 0 min 25 W/m 18,8 km/h (3 Bft)
06.06.2015 06:12 18,1 C 16,7 C 97 % 15 lf 1018,5 hPa 0,0 l/m 0 min 0 min 31 W/m 16,7 km/h (3 Bft)
06.06.2015 06:14 18,1 C 16,7 C 97 % 15 lf 1018,6 hPa 0,0 l/m 0 min 0 min 33 W/m 12,6 km/h (3 Bft)
06.06.2015 06:16 18,1 C 16,7 C 97 % 15 lf 1018,6 hPa 0,0 l/m 0 min 0 min 29 W/m 18,8 km/h (3 Bft)
06.06.2015 06:18 18,0 C 16,7 C 97 % 14 lf 1018,6 hPa 0,0 l/m 0 min 0 min 26 W/m 14,6 km/h (3 Bft)
06.06.2015 06:20 17,9 C 16,7 C 97 % 11 lf 1018,7 hPa 0,0 l/m 0 min 0 min 18 W/m 14,6 km/h (3 Bft)
06.06.2015 06:22 17,9 C 16,1 C 97 % 4 lf 1018,8 hPa 0,0 l/m 0 min 0 min 19 W/m 23,0 km/h (4 Bft)
06.06.2015 06:24 17,9 C 16,1 C 97 % 2 lf 1018,9 hPa 0,0 l/m 0 min 0 min 26 W/m 23,0 km/h (4 Bft)
06.06.2015 06:26 17,7 C 16,1 C 97 % 1 lf 1018,9 hPa 0,0 l/m 0 min 0 min 30 W/m 31,4 km/h (5 Bft)
06.06.2015 06:28 17,6 C 15,6 C 97 % 1 lf 1019,0 hPa 0,0 l/m 0 min 0 min 40 W/m 23,0 km/h (4 Bft)
06.06.2015 06:30 17,4 C 15,6 C 97 % 1 lf 1019,0 hPa 0,0 l/m 0 min 0 min 49 W/m 20,9 km/h (4 Bft)
06.06.2015 06:32 17,2 C 15,6 C 96 % 0 lf 1019,2 hPa 0,0 l/m 0 min 0 min 42 W/m 20,9 km/h (4 Bft)
06.06.2015 06:34 17,1 C 15,0 C 96 % 1 lf 1019,2 hPa 0,0 l/m 0 min 0 min 38 W/m 16,7 km/h (3 Bft)
06.06.2015 06:36 17,1 C 15,0 C 96 % 1 lf 1019,2 hPa 0,0 l/m 0 min 0 min 39 W/m 18,8 km/h (3 Bft)
06.06.2015 06:38 17,0 C 15,6 C 96 % 1 lf 1019,3 hPa 0,0 l/m 0 min 0 min 33 W/m 18,8 km/h (3 Bft)
06.06.2015 06:40 17,0 C 15,0 C 96 % 1 lf 1019,3 hPa 0,0 l/m 0 min 0 min 34 W/m 20,9 km/h (4 Bft)
06.06.2015 06:42 16,9 C 15,0 C 96 % 1 lf 1019,3 hPa 0,0 l/m 0 min 0 min 37 W/m 25,1 km/h (4 Bft)
06.06.2015 06:44 16,9 C 15,0 C 96 % 1 lf 1019,4 hPa 0,0 l/m 0 min 0 min 37 W/m 25,1 km/h (4 Bft)
06.06.2015 06:46 16,9 C 15,0 C 96 % 1 lf 1019,4 hPa 0,0 l/m 0 min 0 min 38 W/m 31,4 km/h (5 Bft)
06.06.2015 06:48 16,8 C 15,0 C 96 % 1 lf 1019,5 hPa 0,0 l/m 0 min 0 min 41 W/m 31,4 km/h (5 Bft)
06.06.2015 06:50 16,7 C 15,0 C 95 % 0 lf 1019,5 hPa 0,0 l/m 0 min 0 min 44 W/m 23,0 km/h (4 Bft)
06.06.2015 06:52 16,7 C 15,0 C 95 % 0 lf 1019,5 hPa 0,0 l/m 0 min 0 min 45 W/m 25,1 km/h (4 Bft)
06.06.2015 06:54 16,6 C 15,0 C 95 % 0 lf 1019,6 hPa 0,0 l/m 0 min 0 min 41 W/m 27,2 km/h (4 Bft)
06.06.2015 06:56 16,6 C 15,0 C 94 % 0 lf 1019,7 hPa 0,0 l/m 0 min 0 min 43 W/m 29,3 km/h (5 Bft)
06.06.2015 06:58 16,5 C 14,4 C 94 % 0 lf 1019,6 hPa 0,0 l/m 0 min 0 min 50 W/m 18,8 km/h (3 Bft)
06.06.2015 07:00 16,4 C 15,0 C 94 % 0 lf 1019,6 hPa 0,0 l/m 0 min 0 min 64 W/m 25,1 km/h (4 Bft)
06.06.2015 07:02 16,4 C 15,0 C 94 % 0 lf 1019,7 hPa 0,0 l/m 0 min 0 min 67 W/m 23,0 km/h (4 Bft)
06.06.2015 07:04 16,4 C 15,0 C 94 % 0 lf 1019,8 hPa 0,0 l/m 0 min 0 min 67 W/m 23,0 km/h (4 Bft)
06.06.2015 07:06 16,4 C 15,0 C 93 % 0 lf 1019,8 hPa 0,0 l/m 0 min 0 min 65 W/m 23,0 km/h (4 Bft)
06.06.2015 07:08 16,4 C 15,0 C 93 % 0 lf 1019,9 hPa 0,0 l/m 0 min 0 min 69 W/m 25,1 km/h (4 Bft)
06.06.2015 07:10 16,4 C 15,0 C 93 % 0 lf 1019,9 hPa 0,0 l/m 0 min 0 min 73 W/m 16,7 km/h (3 Bft)
06.06.2015 07:12 16,4 C 15,0 C 93 % 0 lf 1019,7 hPa 0,0 l/m 0 min 0 min 84 W/m 20,9 km/h (4 Bft)
06.06.2015 07:14 16,4 C 15,0 C 93 % 0 lf 1019,8 hPa 0,0 l/m 0 min 0 min 93 W/m 18,8 km/h (3 Bft)
06.06.2015 07:16 16,4 C 15,0 C 93 % 0 lf 1019,8 hPa 0,0 l/m 0 min 0 min 96 W/m 27,2 km/h (4 Bft)
06.06.2015 07:18 16,4 C 15,0 C 92 % 0 lf 1019,9 hPa 0,0 l/m 0 min 0 min 86 W/m 20,9 km/h (4 Bft)
06.06.2015 07:20 16,4 C 15,0 C 92 % 0 lf 1019,9 hPa 0,0 l/m 0 min 0 min 83 W/m 23,0 km/h (4 Bft)
06.06.2015 07:22 16,4 C 15,0 C 92 % 0 lf 1019,9 hPa 0,0 l/m 0 min 0 min 84 W/m 25,1 km/h (4 Bft)
06.06.2015 07:24 16,4 C 15,0 C 92 % 0 lf 1019,9 hPa 0,0 l/m 0 min 0 min 81 W/m 27,2 km/h (4 Bft)
06.06.2015 07:26 16,3 C 14,4 C 92 % 0 lf 1019,9 hPa 0,0 l/m 0 min 0 min 78 W/m 31,4 km/h (5 Bft)
06.06.2015 07:28 16,3 C 14,4 C 92 % 0 lf 1020,0 hPa 0,0 l/m 0 min 0 min 75 W/m 25,1 km/h (4 Bft)
06.06.2015 07:30 16,3 C 14,4 C 92 % 0 lf 1020,0 hPa 0,0 l/m 0 min 0 min 73 W/m 20,9 km/h (4 Bft)
06.06.2015 07:32 16,3 C 14,4 C 92 % 0 lf 1020,0 hPa 0,0 l/m 0 min 0 min 76 W/m 23,0 km/h (4 Bft)
06.06.2015 07:34 16,3 C 14,4 C 91 % 0 lf 1020,1 hPa 0,0 l/m 0 min 0 min 77 W/m 10,5 km/h (2 Bft)
06.06.2015 07:36 16,3 C 15,0 C 92 % 0 lf 1020,1 hPa 0,0 l/m 0 min 0 min 86 W/m 20,9 km/h (4 Bft)
06.06.2015 07:38 16,3 C 15,0 C 91 % 0 lf 1020,1 hPa 0,0 l/m 0 min 0 min 90 W/m 14,6 km/h (3 Bft)
06.06.2015 07:40 16,3 C 15,0 C 91 % 0 lf 1020,3 hPa 0,0 l/m 0 min 0 min 83 W/m 23,0 km/h (4 Bft)
06.06.2015 07:42 16,3 C 14,4 C 91 % 0 lf 1020,3 hPa 0,0 l/m 0 min 0 min 79 W/m 23,0 km/h (4 Bft)
06.06.2015 07:44 16,3 C 14,4 C 91 % 0 lf 1020,3 hPa 0,0 l/m 0 min 0 min 80 W/m 35,6 km/h (5 Bft)
06.06.2015 07:46 16,3 C 14,4 C 91 % 0 lf 1020,3 hPa 0,0 l/m 0 min 0 min 80 W/m 16,7 km/h (3 Bft)
06.06.2015 07:48 16,3 C 14,4 C 91 % 0 lf 1020,4 hPa 0,0 l/m 0 min 0 min 74 W/m 18,8 km/h (3 Bft)
06.06.2015 07:50 16,3 C 14,4 C 91 % 0 lf 1020,4 hPa 0,0 l/m 0 min 0 min 68 W/m 12,6 km/h (3 Bft)
06.06.2015 07:52 16,3 C 14,4 C 91 % 0 lf 1020,4 hPa 0,0 l/m 0 min 0 min 67 W/m 8,4 km/h (2 Bft)
06.06.2015 07:54 16,3 C 14,4 C 91 % 0 lf 1020,5 hPa 0,0 l/m 0 min 0 min 73 W/m 16,7 km/h (3 Bft)
06.06.2015 07:56 16,3 C 14,4 C 91 % 0 lf 1020,5 hPa 0,0 l/m 0 min 0 min 81 W/m 12,6 km/h (3 Bft)
06.06.2015 07:58 16,3 C 14,4 C 91 % 0 lf 1020,6 hPa 0,0 l/m 0 min 0 min 82 W/m 23,0 km/h (4 Bft)
06.06.2015 08:01 16,3 C 14,4 C 91 % 0 lf 1020,6 hPa 0,0 l/m 0 min 0 min 79 W/m 10,5 km/h (2 Bft)
06.06.2015 08:02 16,3 C 14,4 C 91 % 0 lf 1020,6 hPa 0,0 l/m 0 min 0 min 88 W/m 8,4 km/h (2 Bft)
06.06.2015 08:06 16,3 C 14,4 C 91 % 0 lf 1020,7 hPa 0,0 l/m 0 min 0 min 72 W/m 20,9 km/h (4 Bft)
06.06.2015 08:07 16,3 C 14,4 C 91 % 0 lf 1020,7 hPa 0,0 l/m 0 min 0 min 65 W/m 23,0 km/h (4 Bft)
06.06.2015 08:10 16,3 C 14,4 C 91 % 0 lf 1020,7 hPa 0,0 l/m 0 min 0 min 84 W/m 16,7 km/h (3 Bft)
06.06.2015 08:12 16,3 C 14,4 C 91 % 0 lf 1020,7 hPa 0,0 l/m 0 min 0 min 94 W/m 23,0 km/h (4 Bft)
06.06.2015 08:14 16,3 C 14,4 C 90 % 0 lf 1020,8 hPa 0,0 l/m 0 min 0 min 112 W/m 12,6 km/h (3 Bft)
06.06.2015 08:16 16,3 C 15,0 C 90 % 0 lf 1020,8 hPa 0,0 l/m 0 min 0 min 104 W/m 16,7 km/h (3 Bft)
06.06.2015 08:18 16,3 C 14,4 C 91 % 0 lf 1020,8 hPa 0,0 l/m 0 min 0 min 100 W/m 16,7 km/h (3 Bft)
06.06.2015 08:20 16,3 C 14,4 C 91 % 0 lf 1020,8 hPa 0,0 l/m 0 min 0 min 100 W/m 10,5 km/h (2 Bft)
06.06.2015 08:22 16,3 C 14,4 C 90 % 0 lf 1020,8 hPa 0,0 l/m 0 min 0 min 102 W/m 20,9 km/h (4 Bft)
06.06.2015 08:24 16,3 C 15,0 C 90 % 0 lf 1020,8 hPa 0,0 l/m 0 min 0 min 134 W/m 20,9 km/h (4 Bft)
06.06.2015 08:26 16,3 C 15,0 C 90 % 0 lf 1020,8 hPa 0,0 l/m 0 min 0 min 165 W/m 14,6 km/h (3 Bft)
06.06.2015 08:28 16,3 C 15,0 C 90 % 0 lf 1020,8 hPa 0,0 l/m 0 min 0 min 162 W/m 14,6 km/h (3 Bft)
06.06.2015 08:30 16,3 C 15,0 C 90 % 0 lf 1021,0 hPa 0,0 l/m 0 min 0 min 137 W/m 18,8 km/h (3 Bft)
06.06.2015 08:32 16,3 C 15,0 C 90 % 0 lf 1021,0 hPa 0,0 l/m 0 min 0 min 123 W/m 20,9 km/h (4 Bft)
06.06.2015 08:34 16,3 C 15,0 C 90 % 0 lf 1021,0 hPa 0,0 l/m 0 min 0 min 125 W/m 12,6 km/h (3 Bft)
06.06.2015 08:36 16,4 C 15,0 C 90 % 0 lf 1021,0 hPa 0,0 l/m 0 min 0 min 118 W/m 14,6 km/h (3 Bft)
06.06.2015 08:38 16,4 C 15,0 C 90 % 0 lf 1021,0 hPa 0,0 l/m 0 min 0 min 155 W/m 16,7 km/h (3 Bft)
06.06.2015 08:40 16,4 C 15,0 C 90 % 0 lf 1021,1 hPa 0,0 l/m 0 min 0 min 165 W/m 20,9 km/h (4 Bft)
06.06.2015 08:42 16,4 C 15,0 C 90 % 0 lf 1021,1 hPa 0,0 l/m 0 min 0 min 192 W/m 16,7 km/h (3 Bft)
06.06.2015 08:44 16,4 C 15,0 C 90 % 0 lf 1021,2 hPa 0,0 l/m 0 min 0 min 196 W/m 18,8 km/h (3 Bft)
06.06.2015 08:46 16,5 C 15,0 C 89 % 0 lf 1021,3 hPa 0,0 l/m 0 min 0 min 107 W/m 18,8 km/h (3 Bft)
06.06.2015 08:48 16,5 C 15,0 C 89 % 0 lf 1021,4 hPa 0,0 l/m 0 min 0 min 67 W/m 18,8 km/h (3 Bft)
06.06.2015 08:50 16,6 C 15,0 C 89 % 0 lf 1021,5 hPa 0,0 l/m 0 min 0 min 58 W/m 23,0 km/h (4 Bft)
06.06.2015 08:52 16,6 C 15,0 C 89 % 0 lf 1021,6 hPa 0,0 l/m 0 min 0 min 63 W/m 20,9 km/h (4 Bft)
06.06.2015 08:54 16,6 C 15,0 C 89 % 0 lf 1021,7 hPa 0,0 l/m 0 min 0 min 98 W/m 25,1 km/h (4 Bft)
06.06.2015 08:56 16,5 C 15,0 C 89 % 0 lf 1021,7 hPa 0,0 l/m 0 min 0 min 71 W/m 16,7 km/h (3 Bft)
06.06.2015 08:58 16,5 C 14,4 C 89 % 0 lf 1021,6 hPa 0,0 l/m 0 min 0 min 74 W/m 14,6 km/h (3 Bft)
06.06.2015 09:00 16,4 C 14,4 C 89 % 0 lf 1021,7 hPa 0,0 l/m 0 min 0 min 79 W/m 16,7 km/h (3 Bft)
06.06.2015 09:02 16,4 C 14,4 C 89 % 0 lf 1021,8 hPa 0,0 l/m 0 min 0 min 64 W/m 16,7 km/h (3 Bft)
06.06.2015 09:04 16,4 C 15,0 C 89 % 0 lf 1021,8 hPa 0,0 l/m 0 min 0 min 101 W/m 16,7 km/h (3 Bft)
06.06.2015 09:06 16,4 C 15,0 C 89 % 0 lf 1021,8 hPa 0,0 l/m 0 min 0 min 167 W/m 20,9 km/h (4 Bft)
06.06.2015 09:08 16,4 C 15,0 C 89 % 0 lf 1021,8 hPa 0,0 l/m 0 min 0 min 166 W/m 18,8 km/h (3 Bft)
06.06.2015 09:10 16,4 C 15,0 C 88 % 0 lf 1021,7 hPa 0,0 l/m 0 min 0 min 197 W/m 23,0 km/h (4 Bft)
06.06.2015 09:12 16,4 C 15,0 C 88 % 0 lf 1021,8 hPa 0,0 l/m 0 min 0 min 234 W/m 16,7 km/h (3 Bft)
06.06.2015 09:14 16,4 C 15,0 C 88 % 0 lf 1021,8 hPa 0,0 l/m 2 min 0 min 321 W/m 16,7 km/h (3 Bft)
06.06.2015 09:16 16,5 C 15,6 C 88 % 0 lf 1021,8 hPa 0,0 l/m 2 min 0 min 408 W/m 20,9 km/h (4 Bft)
06.06.2015 09:18 16,6 C 15,6 C 87 % 0 lf 1021,7 hPa 0,0 l/m 0 min 0 min 221 W/m 14,6 km/h (3 Bft)
06.06.2015 09:20 16,6 C 15,6 C 87 % 0 lf 1021,8 hPa 0,0 l/m 0 min 0 min 128 W/m 14,6 km/h (3 Bft)
06.06.2015 09:22 16,7 C 15,0 C 87 % 0 lf 1021,8 hPa 0,0 l/m 0 min 0 min 66 W/m 20,9 km/h (4 Bft)
06.06.2015 09:24 16,7 C 15,0 C 87 % 0 lf 1021,8 hPa 0,0 l/m 0 min 0 min 60 W/m 23,0 km/h (4 Bft)
06.06.2015 09:26 16,7 C 14,4 C 87 % 0 lf 1021,8 hPa 0,0 l/m 0 min 0 min 50 W/m 14,6 km/h (3 Bft)
06.06.2015 09:28 16,7 C 14,4 C 87 % 0 lf 1021,8 hPa 0,0 l/m 0 min 0 min 63 W/m 14,6 km/h (3 Bft)
06.06.2015 09:30 16,6 C 15,0 C 87 % 0 lf 1021,8 hPa 0,0 l/m 0 min 0 min 90 W/m 14,6 km/h (3 Bft)
06.06.2015 09:32 16,6 C 15,0 C 87 % 0 lf 1021,8 hPa 0,0 l/m 0 min 0 min 105 W/m 12,6 km/h (3 Bft)
06.06.2015 09:34 16,6 C 15,0 C 87 % 0 lf 1021,9 hPa 0,0 l/m 0 min 0 min 102 W/m 14,6 km/h (3 Bft)
06.06.2015 09:36 16,6 C 15,0 C 87 % 0 lf 1021,9 hPa 0,0 l/m 0 min 0 min 79 W/m 12,6 km/h (3 Bft)
06.06.2015 09:38 16,6 C 15,0 C 87 % 0 lf 1022,0 hPa 0,0 l/m 0 min 0 min 77 W/m 18,8 km/h (3 Bft)
06.06.2015 09:40 16,5 C 15,0 C 87 % 0 lf 1021,9 hPa 0,0 l/m 0 min 0 min 110 W/m 20,9 km/h (4 Bft)
06.06.2015 09:42 16,4 C 15,0 C 86 % 0 lf 1022,0 hPa 0,0 l/m 0 min 0 min 140 W/m 20,9 km/h (4 Bft)
06.06.2015 09:44 16,4 C 15,0 C 86 % 0 lf 1022,0 hPa 0,0 l/m 0 min 0 min 199 W/m 18,8 km/h (3 Bft)
06.06.2015 09:46 16,4 C 15,0 C 86 % 0 lf 1022,1 hPa 0,0 l/m 0 min 0 min 246 W/m 14,6 km/h (3 Bft)
06.06.2015 09:48 16,4 C 15,0 C 86 % 0 lf 1022,1 hPa 0,0 l/m 0 min 0 min 214 W/m 18,8 km/h (3 Bft)
06.06.2015 09:50 16,5 C 15,6 C 86 % 0 lf 1022,0 hPa 0,0 l/m 0 min 0 min 199 W/m 16,7 km/h (3 Bft)
06.06.2015 09:52 16,6 C 15,6 C 86 % 0 lf 1022,0 hPa 0,0 l/m 0 min 0 min 254 W/m 16,7 km/h (3 Bft)
06.06.2015 09:54 16,6 C 16,1 C 86 % 0 lf 1022,0 hPa 0,0 l/m 2 min 0 min 456 W/m 16,7 km/h (3 Bft)
06.06.2015 09:56 16,7 C 16,1 C 86 % 0 lf 1022,1 hPa 0,0 l/m 2 min 0 min 474 W/m 12,6 km/h (3 Bft)
06.06.2015 09:58 16,8 C 16,7 C 87 % 0 lf 1022,1 hPa 0,0 l/m 2 min 0 min 442 W/m 14,6 km/h (3 Bft)
06.06.2015 10:00 16,9 C 16,7 C 87 % 0 lf 1022,2 hPa 0,0 l/m 2 min 0 min 410 W/m 18,8 km/h (3 Bft)
06.06.2015 10:02 16,9 C 16,7 C 86 % 0 lf 1022,2 hPa 0,0 l/m 2 min 0 min 361 W/m 14,6 km/h (3 Bft)
06.06.2015 10:04 17,1 C 16,7 C 85 % 0 lf 1022,2 hPa 0,0 l/m 2 min 0 min 485 W/m 16,7 km/h (3 Bft)
06.06.2015 10:06 17,2 C 17,8 C 86 % 0 lf 1022,2 hPa 0,0 l/m 2 min 0 min 573 W/m 12,6 km/h (3 Bft)
06.06.2015 10:08 17,3 C 18,3 C 86 % 0 lf 1022,2 hPa 0,0 l/m 2 min 0 min 753 W/m 14,6 km/h (3 Bft)
06.06.2015 10:10 17,5 C 18,3 C 86 % 0 lf 1022,2 hPa 0,0 l/m 2 min 0 min 778 W/m 12,6 km/h (3 Bft)
06.06.2015 10:12 17,7 C 19,4 C 86 % 0 lf 1022,3 hPa 0,0 l/m 2 min 0 min 833 W/m 14,6 km/h (3 Bft)
06.06.2015 10:14 17,9 C 20,0 C 85 % 0 lf 1022,4 hPa 0,0 l/m 2 min 0 min 900 W/m 20,9 km/h (4 Bft)
06.06.2015 10:16 18,1 C 20,0 C 85 % 0 lf 1022,4 hPa 0,0 l/m 2 min 0 min 802 W/m 14,6 km/h (3 Bft)
06.06.2015 10:18 18,3 C 19,4 C 84 % 0 lf 1022,4 hPa 0,0 l/m 2 min 0 min 645 W/m 20,9 km/h (4 Bft)
06.06.2015 10:20 18,5 C 18,9 C 82 % 0 lf 1022,4 hPa 0,0 l/m 2 min 0 min 415 W/m 18,8 km/h (3 Bft)
06.06.2015 10:22 18,6 C 18,3 C 82 % 0 lf 1022,4 hPa 0,0 l/m 2 min 0 min 374 W/m 16,7 km/h (3 Bft)
06.06.2015 10:24 18,7 C 17,8 C 81 % 0 lf 1022,5 hPa 0,0 l/m 2 min 0 min 350 W/m 18,8 km/h (3 Bft)
06.06.2015 10:26 18,7 C 17,8 C 79 % 0 lf 1022,5 hPa 0,0 l/m 2 min 0 min 368 W/m 20,9 km/h (4 Bft)
06.06.2015 10:28 18,8 C 17,2 C 79 % 0 lf 1022,5 hPa 0,0 l/m 0 min 0 min 322 W/m 16,7 km/h (3 Bft)
06.06.2015 10:30 18,8 C 17,2 C 78 % 0 lf 1022,5 hPa 0,0 l/m 0 min 0 min 248 W/m 16,7 km/h (3 Bft)
06.06.2015 10:32 18,8 C 17,2 C 78 % 0 lf 1022,6 hPa 0,0 l/m 0 min 0 min 230 W/m 16,7 km/h (3 Bft)
06.06.2015 10:34 18,8 C 17,2 C 78 % 0 lf 1022,5 hPa 0,0 l/m 0 min 0 min 246 W/m 16,7 km/h (3 Bft)
06.06.2015 10:36 18,8 C 17,2 C 78 % 0 lf 1022,7 hPa 0,0 l/m 0 min 0 min 250 W/m 14,6 km/h (3 Bft)
06.06.2015 10:38 18,8 C 17,2 C 78 % 0 lf 1022,6 hPa 0,0 l/m 0 min 0 min 248 W/m 14,6 km/h (3 Bft)
06.06.2015 10:40 18,8 C 17,2 C 77 % 0 lf 1022,7 hPa 0,0 l/m 0 min 0 min 233 W/m 12,6 km/h (3 Bft)
06.06.2015 10:42 18,8 C 17,2 C 78 % 0 lf 1022,7 hPa 0,0 l/m 0 min 0 min 190 W/m 14,6 km/h (3 Bft)
06.06.2015 10:44 18,8 C 17,2 C 78 % 0 lf 1022,9 hPa 0,0 l/m 0 min 0 min 204 W/m 10,5 km/h (2 Bft)
06.06.2015 10:46 18,8 C 17,2 C 78 % 0 lf 1022,9 hPa 0,0 l/m 0 min 0 min 233 W/m 12,6 km/h (3 Bft)
06.06.2015 10:48 18,7 C 17,2 C 78 % 0 lf 1022,9 hPa 0,0 l/m 0 min 0 min 216 W/m 18,8 km/h (3 Bft)
06.06.2015 10:50 18,7 C 17,2 C 78 % 0 lf 1022,8 hPa 0,0 l/m 0 min 0 min 188 W/m 14,6 km/h (3 Bft)
06.06.2015 10:52 18,6 C 17,2 C 78 % 0 lf 1022,9 hPa 0,0 l/m 0 min 0 min 199 W/m 20,9 km/h (4 Bft)
06.06.2015 10:54 18,6 C 17,2 C 77 % 0 lf 1022,8 hPa 0,0 l/m 0 min 0 min 210 W/m 20,9 km/h (4 Bft)
06.06.2015 10:56 18,5 C 17,2 C 77 % 0 lf 1022,9 hPa 0,0 l/m 0 min 0 min 187 W/m 16,7 km/h (3 Bft)
06.06.2015 10:58 18,4 C 17,2 C 78 % 0 lf 1022,9 hPa 0,0 l/m 0 min 0 min 182 W/m 14,6 km/h (3 Bft)
06.06.2015 11:00 18,4 C 17,2 C 79 % 0 lf 1023,0 hPa 0,0 l/m 0 min 0 min 201 W/m 16,7 km/h (3 Bft)
06.06.2015 11:02 18,4 C 17,2 C 79 % 0 lf 1023,0 hPa 0,0 l/m 0 min 0 min 179 W/m 18,8 km/h (3 Bft)
06.06.2015 11:04 18,3 C 17,2 C 79 % 0 lf 1023,1 hPa 0,0 l/m 0 min 0 min 176 W/m 16,7 km/h (3 Bft)
06.06.2015 11:06 18,3 C 16,7 C 79 % 0 lf 1023,0 hPa 0,0 l/m 0 min 0 min 184 W/m 18,8 km/h (3 Bft)
06.06.2015 11:08 18,2 C 16,7 C 79 % 0 lf 1023,1 hPa 0,0 l/m 0 min 0 min 192 W/m 25,1 km/h (4 Bft)
06.06.2015 11:10 18,2 C 17,2 C 79 % 0 lf 1023,1 hPa 0,0 l/m 0 min 0 min 183 W/m 14,6 km/h (3 Bft)
06.06.2015 11:12 18,2 C 17,2 C 80 % 0 lf 1023,1 hPa 0,0 l/m 0 min 0 min 234 W/m 23,0 km/h (4 Bft)
06.06.2015 11:14 18,2 C 17,8 C 80 % 0 lf 1023,2 hPa 0,0 l/m 0 min 0 min 256 W/m 16,7 km/h (3 Bft)
06.06.2015 11:16 18,2 C 17,8 C 80 % 0 lf 1023,2 hPa 0,0 l/m 0 min 0 min 223 W/m 12,6 km/h (3 Bft)
06.06.2015 11:18 18,2 C 17,8 C 80 % 0 lf 1023,2 hPa 0,0 l/m 0 min 0 min 219 W/m 16,7 km/h (3 Bft)
06.06.2015 11:20 18,2 C 17,8 C 80 % 0 lf 1023,2 hPa 0,0 l/m 0 min 0 min 218 W/m 23,0 km/h (4 Bft)
06.06.2015 11:22 18,2 C 17,8 C 80 % 0 lf 1023,2 hPa 0,0 l/m 0 min 0 min 235 W/m 16,7 km/h (3 Bft)
06.06.2015 11:24 18,2 C 17,8 C 80 % 0 lf 1023,2 hPa 0,0 l/m 0 min 0 min 335 W/m 14,6 km/h (3 Bft)
06.06.2015 11:26 18,2 C 18,3 C 80 % 0 lf 1023,3 hPa 0,0 l/m 2 min 0 min 426 W/m 14,6 km/h (3 Bft)
06.06.2015 11:28 18,2 C 18,9 C 80 % 0 lf 1023,3 hPa 0,0 l/m 2 min 0 min 449 W/m 14,6 km/h (3 Bft)
06.06.2015 11:30 18,3 C 18,9 C 80 % 0 lf 1023,3 hPa 0,0 l/m 0 min 0 min 363 W/m 10,5 km/h (2 Bft)
06.06.2015 11:32 18,3 C 18,3 C 80 % 0 lf 1023,3 hPa 0,0 l/m 0 min 0 min 292 W/m 12,6 km/h (3 Bft)
06.06.2015 11:34 18,4 C 18,3 C 80 % 0 lf 1023,3 hPa 0,0 l/m 0 min 0 min 215 W/m 14,6 km/h (3 Bft)
06.06.2015 11:36 18,4 C 17,8 C 79 % 0 lf 1023,3 hPa 0,0 l/m 0 min 0 min 170 W/m 18,8 km/h (3 Bft)
06.06.2015 11:38 18,4 C 17,2 C 79 % 0 lf 1023,3 hPa 0,0 l/m 0 min 0 min 161 W/m 18,8 km/h (3 Bft)
06.06.2015 11:40 18,3 C 17,2 C 78 % 0 lf 1023,3 hPa 0,0 l/m 0 min 0 min 174 W/m 23,0 km/h (4 Bft)
06.06.2015 11:42 18,3 C 17,2 C 78 % 0 lf 1023,4 hPa 0,0 l/m 0 min 0 min 194 W/m 18,8 km/h (3 Bft)
06.06.2015 11:44 18,3 C 17,2 C 78 % 0 lf 1023,4 hPa 0,0 l/m 0 min 0 min 224 W/m 14,6 km/h (3 Bft)
06.06.2015 11:46 18,3 C 17,8 C 79 % 0 lf 1023,5 hPa 0,0 l/m 0 min 0 min 277 W/m 14,6 km/h (3 Bft)
06.06.2015 11:48 18,3 C 17,8 C 79 % 0 lf 1023,4 hPa 0,0 l/m 0 min 0 min 353 W/m 14,6 km/h (3 Bft)
06.06.2015 11:50 18,4 C 18,3 C 80 % 0 lf 1023,5 hPa 0,0 l/m 0 min 0 min 374 W/m 18,8 km/h (3 Bft)
06.06.2015 11:52 18,4 C 18,3 C 79 % 0 lf 1023,5 hPa 0,0 l/m 0 min 0 min 317 W/m 18,8 km/h (3 Bft)
06.06.2015 11:54 18,4 C 18,3 C 78 % 0 lf 1023,6 hPa 0,0 l/m 0 min 0 min 274 W/m 16,7 km/h (3 Bft)
06.06.2015 11:56 18,4 C 17,8 C 78 % 0 lf 1023,7 hPa 0,0 l/m 0 min 0 min 239 W/m 12,6 km/h (3 Bft)
06.06.2015 11:58 18,4 C 17,8 C 78 % 0 lf 1023,6 hPa 0,0 l/m 0 min 0 min 210 W/m 12,6 km/h (3 Bft)
06.06.2015 12:00 18,4 C 17,8 C 78 % 0 lf 1023,7 hPa 0,0 l/m 0 min 0 min 208 W/m 20,9 km/h (4 Bft)
06.06.2015 12:02 18,4 C 17,8 C 78 % 0 lf 1023,6 hPa 0,0 l/m 0 min 0 min 241 W/m 12,6 km/h (3 Bft)
06.06.2015 12:06 18,5 C 18,3 C 79 % 0 lf 1023,6 hPa 0,0 l/m 0 min 0 min 273 W/m 16,7 km/h (3 Bft)
06.06.2015 12:08 18,5 C 17,8 C 79 % 0 lf 1023,7 hPa 0,0 l/m 0 min 0 min 239 W/m 16,7 km/h (3 Bft)
06.06.2015 12:10 18,5 C 17,8 C 78 % 0 lf 1023,7 hPa 0,0 l/m 0 min 0 min 190 W/m 18,8 km/h (3 Bft)
06.06.2015 12:12 18,5 C 17,8 C 78 % 0 lf 1023,8 hPa 0,0 l/m 0 min 0 min 175 W/m 20,9 km/h (4 Bft)
06.06.2015 12:14 18,4 C 17,2 C 77 % 0 lf 1023,8 hPa 0,0 l/m 0 min 0 min 175 W/m 10,5 km/h (2 Bft)
06.06.2015 12:16 18,4 C 17,2 C 78 % 0 lf 1023,9 hPa 0,0 l/m 0 min 0 min 199 W/m 16,7 km/h (3 Bft)
06.06.2015 12:18 18,4 C 17,2 C 78 % 0 lf 1023,8 hPa 0,0 l/m 0 min 0 min 209 W/m 18,8 km/h (3 Bft)
06.06.2015 12:20 18,4 C 17,2 C 78 % 0 lf 1023,8 hPa 0,0 l/m 0 min 0 min 210 W/m 10,5 km/h (2 Bft)
06.06.2015 12:22 18,4 C 17,8 C 78 % 0 lf 1023,8 hPa 0,0 l/m 0 min 0 min 228 W/m 12,6 km/h (3 Bft)
06.06.2015 12:24 18,4 C 19,4 C 78 % 0 lf 1023,8 hPa 0,0 l/m 0 min 0 min 230 W/m 12,6 km/h (3 Bft)
06.06.2015 12:26 18,5 C 20,0 C 79 % 0 lf 1023,8 hPa 0,0 l/m 0 min 0 min 230 W/m 12,6 km/h (3 Bft)
06.06.2015 12:28 18,6 C 20,6 C 79 % 0 lf 1023,8 hPa 0,0 l/m 2 min 0 min 527 W/m 14,6 km/h (3 Bft)
06.06.2015 12:30 18,8 C 20,0 C 79 % 0 lf 1023,8 hPa 0,0 l/m 2 min 0 min 445 W/m 20,9 km/h (4 Bft)
06.06.2015 12:32 18,8 C 20,0 C 78 % 0 lf 1023,8 hPa 0,0 l/m 2 min 0 min 424 W/m 16,7 km/h (3 Bft)
06.06.2015 12:34 18,9 C 20,0 C 77 % 0 lf 1023,8 hPa 0,0 l/m 0 min 0 min 396 W/m 14,6 km/h (3 Bft)
06.06.2015 12:36 19,0 C 20,0 C 76 % 0 lf 1023,9 hPa 0,0 l/m 0 min 0 min 370 W/m 18,8 km/h (3 Bft)
06.06.2015 12:38 19,1 C 19,4 C 75 % 0 lf 1023,9 hPa 0,0 l/m 0 min 0 min 378 W/m 20,9 km/h (4 Bft)
06.06.2015 12:40 19,2 C 19,4 C 75 % 0 lf 1023,9 hPa 0,0 l/m 2 min 0 min 431 W/m 18,8 km/h (3 Bft)
06.06.2015 12:42 19,3 C 20,6 C 75 % 0 lf 1023,9 hPa 0,0 l/m 2 min 0 min 541 W/m 18,8 km/h (3 Bft)
06.06.2015 12:44 19,5 C 21,7 C 76 % 0 lf 1023,8 hPa 0,0 l/m 2 min 0 min 504 W/m 18,8 km/h (3 Bft)
06.06.2015 12:46 19,7 C 22,2 C 76 % 0 lf 1023,9 hPa 0,0 l/m 2 min 0 min 504 W/m 12,6 km/h (3 Bft)
06.06.2015 12:48 19,8 C 21,7 C 74 % 0 lf 1023,9 hPa 0,0 l/m 2 min 0 min 537 W/m 18,8 km/h (3 Bft)
06.06.2015 12:50 19,9 C 21,7 C 74 % 0 lf 1023,9 hPa 0,0 l/m 2 min 0 min 517 W/m 16,7 km/h (3 Bft)
06.06.2015 12:52 20,1 C 21,1 C 73 % 0 lf 1023,9 hPa 0,0 l/m 2 min 0 min 464 W/m 14,6 km/h (3 Bft)
06.06.2015 12:54 20,2 C 20,6 C 73 % 0 lf 1023,8 hPa 0,0 l/m 0 min 0 min 409 W/m 10,5 km/h (2 Bft)
06.06.2015 12:56 20,2 C 20,6 C 72 % 0 lf 1023,8 hPa 0,0 l/m 0 min 0 min 355 W/m 16,7 km/h (3 Bft)
06.06.2015 12:58 20,2 C 19,4 C 71 % 0 lf 1023,8 hPa 0,0 l/m 0 min 0 min 292 W/m 12,6 km/h (3 Bft)
06.06.2015 13:00 20,2 C 19,4 C 71 % 0 lf 1023,8 hPa 0,0 l/m 0 min 0 min 304 W/m 18,8 km/h (3 Bft)
06.06.2015 13:02 20,2 C 19,4 C 72 % 0 lf 1023,8 hPa 0,0 l/m 0 min 0 min 310 W/m 16,7 km/h (3 Bft)
06.06.2015 13:04 20,1 C 19,4 C 71 % 0 lf 1023,9 hPa 0,0 l/m 0 min 0 min 298 W/m 14,6 km/h (3 Bft)
06.06.2015 13:06 20,1 C 20,0 C 72 % 0 lf 1023,9 hPa 0,0 l/m 0 min 0 min 332 W/m 14,6 km/h (3 Bft)
06.06.2015 13:08 20,2 C 21,7 C 72 % 0 lf 1023,9 hPa 0,0 l/m 0 min 0 min 339 W/m 12,6 km/h (3 Bft)
06.06.2015 13:10 20,2 C 23,3 C 72 % 0 lf 1023,8 hPa 0,0 l/m 2 min 0 min 954 W/m 18,8 km/h (3 Bft)
06.06.2015 13:12 20,3 C 24,4 C 73 % 0 lf 1023,9 hPa 0,0 l/m 2 min 0 min 942 W/m 18,8 km/h (3 Bft)
06.06.2015 13:14 20,6 C 25,6 C 72 % 0 lf 1023,9 hPa 0,0 l/m 2 min 0 min 943 W/m 14,6 km/h (3 Bft)
06.06.2015 13:16 20,7 C 26,1 C 72 % 0 lf 1023,9 hPa 0,0 l/m 2 min 0 min 967 W/m 12,6 km/h (3 Bft)
06.06.2015 13:18 21,0 C 24,4 C 69 % 0 lf 1023,9 hPa 0,0 l/m 2 min 0 min 1041 W/m 16,7 km/h (3 Bft)
06.06.2015 13:20 21,1 C 22,8 C 68 % 0 lf 1023,8 hPa 0,0 l/m 2 min 0 min 780 W/m 14,6 km/h (3 Bft)
06.06.2015 13:22 21,2 C 22,8 C 68 % 0 lf 1023,9 hPa 0,0 l/m 2 min 0 min 531 W/m 18,8 km/h (3 Bft)
06.06.2015 13:24 21,4 C 22,8 C 67 % 0 lf 1023,8 hPa 0,0 l/m 2 min 0 min 1123 W/m 14,6 km/h (3 Bft)
06.06.2015 13:26 21,6 C 22,8 C 67 % 0 lf 1023,8 hPa 0,0 l/m 2 min 0 min 1117 W/m 16,7 km/h (3 Bft)
06.06.2015 13:28 21,7 C 22,8 C 65 % 0 lf 1023,8 hPa 0,0 l/m 2 min 0 min 899 W/m 18,8 km/h (3 Bft)
06.06.2015 13:30 21,8 C 22,2 C 65 % 0 lf 1023,8 hPa 0,0 l/m 2 min 0 min 659 W/m 14,6 km/h (3 Bft)
06.06.2015 13:32 21,9 C 21,7 C 65 % 0 lf 1023,8 hPa 0,0 l/m 0 min 0 min 413 W/m 12,6 km/h (3 Bft)
06.06.2015 13:34 21,9 C 21,1 C 64 % 0 lf 1023,8 hPa 0,0 l/m 0 min 0 min 373 W/m 16,7 km/h (3 Bft)
06.06.2015 13:36 21,9 C 21,1 C 64 % 0 lf 1023,9 hPa 0,0 l/m 2 min 0 min 495 W/m 14,6 km/h (3 Bft)
06.06.2015 13:38 21,8 C 20,6 C 64 % 0 lf 1023,9 hPa 0,0 l/m 0 min 0 min 365 W/m 12,6 km/h (3 Bft)
06.06.2015 13:40 21,8 C 21,1 C 66 % 0 lf 1023,9 hPa 0,0 l/m 2 min 0 min 502 W/m 12,6 km/h (3 Bft)
06.06.2015 13:42 21,9 C 21,7 C 65 % 0 lf 1023,9 hPa 0,0 l/m 2 min 0 min 1050 W/m 10,5 km/h (2 Bft)
06.06.2015 13:44 22,0 C 21,1 C 65 % 0 lf 1023,9 hPa 0,0 l/m 2 min 0 min 1048 W/m 23,0 km/h (4 Bft)
06.06.2015 13:46 22,1 C 21,1 C 63 % 0 lf 1024,0 hPa 0,0 l/m 2 min 0 min 1048 W/m 20,9 km/h (4 Bft)
06.06.2015 13:48 22,1 C 21,1 C 64 % 0 lf 1023,9 hPa 0,0 l/m 2 min 0 min 1021 W/m 23,0 km/h (4 Bft)
06.06.2015 13:50 22,2 C 21,7 C 63 % 0 lf 1023,9 hPa 0,0 l/m 2 min 0 min 990 W/m 14,6 km/h (3 Bft)
06.06.2015 13:52 22,3 C 21,7 C 62 % 0 lf 1023,9 hPa 0,0 l/m 2 min 0 min 990 W/m 18,8 km/h (3 Bft)
06.06.2015 13:54 22,3 C 21,1 C 61 % 0 lf 1023,9 hPa 0,0 l/m 2 min 0 min 762 W/m 25,1 km/h (4 Bft)
06.06.2015 13:56 22,2 C 21,1 C 61 % 0 lf 1023,9 hPa 0,0 l/m 0 min 0 min 279 W/m 23,0 km/h (4 Bft)
06.06.2015 13:58 22,2 C 21,1 C 62 % 0 lf 1023,9 hPa 0,0 l/m 2 min 0 min 608 W/m 16,7 km/h (3 Bft)
06.06.2015 14:00 22,1 C 20,6 C 62 % 0 lf 1023,9 hPa 0,0 l/m 2 min 0 min 465 W/m 14,6 km/h (3 Bft)
06.06.2015 14:02 22,0 C 20,6 C 62 % 0 lf 1023,9 hPa 0,0 l/m 0 min 0 min 225 W/m 12,6 km/h (3 Bft)
06.06.2015 14:04 22,0 C 21,1 C 64 % 0 lf 1023,9 hPa 0,0 l/m 2 min 0 min 726 W/m 10,5 km/h (2 Bft)
06.06.2015 14:06 22,1 C 21,7 C 62 % 0 lf 1023,8 hPa 0,0 l/m 2 min 0 min 945 W/m 10,5 km/h (2 Bft)
06.06.2015 14:08 22,1 C 21,7 C 60 % 0 lf 1023,8 hPa 0,0 l/m 2 min 0 min 938 W/m 25,1 km/h (4 Bft)
06.06.2015 14:10 22,2 C 21,7 C 61 % 0 lf 1023,8 hPa 0,0 l/m 2 min 0 min 955 W/m 16,7 km/h (3 Bft)
06.06.2015 14:12 22,3 C 21,7 C 61 % 0 lf 1023,8 hPa 0,0 l/m 2 min 0 min 951 W/m 20,9 km/h (4 Bft)
06.06.2015 14:14 22,3 C 21,1 C 58 % 0 lf 1023,8 hPa 0,0 l/m 0 min 0 min 286 W/m 20,9 km/h (4 Bft)
06.06.2015 14:16 22,3 C 21,1 C 59 % 0 lf 1023,7 hPa 0,0 l/m 0 min 0 min 270 W/m 23,0 km/h (4 Bft)
06.06.2015 14:18 22,3 C 21,1 C 61 % 0 lf 1023,8 hPa 0,0 l/m 0 min 0 min 296 W/m 20,9 km/h (4 Bft)
06.06.2015 14:20 22,3 C 21,1 C 60 % 0 lf 1023,8 hPa 0,0 l/m 0 min 0 min 297 W/m 18,8 km/h (3 Bft)
06.06.2015 14:22 22,3 C 21,1 C 60 % 0 lf 1023,8 hPa 0,0 l/m 0 min 0 min 297 W/m 14,6 km/h (3 Bft)
06.06.2015 14:24 22,4 C 21,1 C 60 % 0 lf 1023,8 hPa 0,0 l/m 2 min 0 min 557 W/m 14,6 km/h (3 Bft)
06.06.2015 14:26 22,5 C 21,7 C 61 % 0 lf 1023,8 hPa 0,0 l/m 2 min 0 min 965 W/m 20,9 km/h (4 Bft)
06.06.2015 14:28 22,6 C 22,2 C 60 % 0 lf 1023,7 hPa 0,0 l/m 2 min 0 min 951 W/m 12,6 km/h (3 Bft)
06.06.2015 14:30 22,8 C 22,8 C 60 % 0 lf 1023,7 hPa 0,0 l/m 2 min 0 min 959 W/m 12,6 km/h (3 Bft)
06.06.2015 14:32 23,0 C 22,8 C 59 % 0 lf 1023,8 hPa 0,0 l/m 2 min 0 min 969 W/m 12,6 km/h (3 Bft)
06.06.2015 14:34 23,1 C 22,2 C 58 % 0 lf 1023,8 hPa 0,0 l/m 2 min 0 min 969 W/m 16,7 km/h (3 Bft)
06.06.2015 14:36 23,2 C 22,2 C 57 % 0 lf 1023,8 hPa 0,0 l/m 2 min 0 min 945 W/m 18,8 km/h (3 Bft)
06.06.2015 14:38 23,2 C 22,2 C 58 % 0 lf 1023,9 hPa 0,0 l/m 2 min 0 min 962 W/m 29,3 km/h (5 Bft)
06.06.2015 14:40 23,3 C 22,8 C 59 % 0 lf 1023,8 hPa 0,0 l/m 2 min 0 min 969 W/m 20,9 km/h (4 Bft)
06.06.2015 14:42 23,4 C 22,8 C 58 % 0 lf 1023,8 hPa 0,0 l/m 2 min 0 min 994 W/m 27,2 km/h (4 Bft)
06.06.2015 14:44 23,4 C 22,8 C 57 % 0 lf 1023,8 hPa 0,0 l/m 2 min 0 min 1020 W/m 12,6 km/h (3 Bft)
06.06.2015 14:46 23,4 C 22,8 C 57 % 0 lf 1023,9 hPa 0,0 l/m 2 min 0 min 1025 W/m 8,4 km/h (2 Bft)
06.06.2015 14:48 23,4 C 22,2 C 56 % 0 lf 1023,9 hPa 0,0 l/m 0 min 0 min 406 W/m 14,6 km/h (3 Bft)
06.06.2015 14:50 23,4 C 22,2 C 58 % 0 lf 1023,9 hPa 0,0 l/m 2 min 0 min 962 W/m 20,9 km/h (4 Bft)
06.06.2015 14:52 23,5 C 22,8 C 58 % 0 lf 1023,9 hPa 0,0 l/m 2 min 0 min 944 W/m 20,9 km/h (4 Bft)
06.06.2015 14:54 23,6 C 22,8 C 57 % 0 lf 1023,9 hPa 0,0 l/m 2 min 0 min 954 W/m 16,7 km/h (3 Bft)
06.06.2015 14:56 23,6 C 22,8 C 57 % 0 lf 1024,0 hPa 0,0 l/m 2 min 0 min 879 W/m 16,7 km/h (3 Bft)
06.06.2015 14:58 23,7 C 22,8 C 55 % 0 lf 1024,0 hPa 0,0 l/m 2 min 0 min 894 W/m 12,6 km/h (3 Bft)
06.06.2015 15:00 23,7 C 22,8 C 54 % 0 lf 1023,9 hPa 0,0 l/m 2 min 0 min 893 W/m 8,4 km/h (2 Bft)
06.06.2015 15:02 23,8 C 22,8 C 54 % 0 lf 1024,0 hPa 0,0 l/m 2 min 0 min 889 W/m 20,9 km/h (4 Bft)
06.06.2015 15:04 23,9 C 22,8 C 55 % 0 lf 1024,0 hPa 0,0 l/m 2 min 0 min 886 W/m 16,7 km/h (3 Bft)
06.06.2015 15:06 24,0 C 22,8 C 56 % 0 lf 1024,0 hPa 0,0 l/m 2 min 0 min 890 W/m 18,8 km/h (3 Bft)
06.06.2015 15:08 24,0 C 22,8 C 54 % 0 lf 1024,0 hPa 0,0 l/m 2 min 0 min 893 W/m 20,9 km/h (4 Bft)
06.06.2015 15:10 24,0 C 22,8 C 54 % 0 lf 1024,0 hPa 0,0 l/m 2 min 0 min 901 W/m 23,0 km/h (4 Bft)
06.06.2015 15:12 24,0 C 22,8 C 53 % 0 lf 1024,0 hPa 0,0 l/m 2 min 0 min 888 W/m 27,2 km/h (4 Bft)
06.06.2015 15:14 24,0 C 22,2 C 53 % 0 lf 1024,0 hPa 0,0 l/m 2 min 0 min 868 W/m 16,7 km/h (3 Bft)
06.06.2015 15:16 24,0 C 22,8 C 52 % 0 lf 1024,0 hPa 0,0 l/m 2 min 0 min 865 W/m 23,0 km/h (4 Bft)
06.06.2015 15:18 24,0 C 22,8 C 52 % 0 lf 1024,1 hPa 0,0 l/m 2 min 0 min 863 W/m 20,9 km/h (4 Bft)
06.06.2015 15:20 24,1 C 22,8 C 53 % 0 lf 1024,1 hPa 0,0 l/m 2 min 0 min 851 W/m 18,8 km/h (3 Bft)
06.06.2015 15:22 24,1 C 22,8 C 53 % 0 lf 1024,1 hPa 0,0 l/m 2 min 0 min 865 W/m 10,5 km/h (2 Bft)
06.06.2015 15:24 24,2 C 23,3 C 56 % 0 lf 1024,1 hPa 0,0 l/m 2 min 0 min 860 W/m 16,7 km/h (3 Bft)
06.06.2015 15:26 24,3 C 23,3 C 53 % 0 lf 1024,2 hPa 0,0 l/m 2 min 0 min 869 W/m 20,9 km/h (4 Bft)
06.06.2015 15:28 24,3 C 23,3 C 52 % 0 lf 1024,1 hPa 0,0 l/m 2 min 0 min 861 W/m 23,0 km/h (4 Bft)
06.06.2015 15:30 24,3 C 23,3 C 51 % 0 lf 1024,2 hPa 0,0 l/m 2 min 0 min 814 W/m 16,7 km/h (3 Bft)
06.06.2015 15:32 24,3 C 23,3 C 52 % 0 lf 1024,2 hPa 0,0 l/m 2 min 0 min 770 W/m 20,9 km/h (4 Bft)
06.06.2015 15:34 24,3 C 22,8 C 50 % 0 lf 1024,2 hPa 0,0 l/m 2 min 0 min 564 W/m 16,7 km/h (3 Bft)
06.06.2015 15:36 24,2 C 22,2 C 52 % 0 lf 1024,2 hPa 0,0 l/m 0 min 0 min 209 W/m 14,6 km/h (3 Bft)
06.06.2015 15:38 24,2 C 22,2 C 52 % 0 lf 1024,2 hPa 0,0 l/m 0 min 0 min 209 W/m 16,7 km/h (3 Bft)
06.06.2015 15:40 24,1 C 22,2 C 52 % 0 lf 1024,2 hPa 0,0 l/m 0 min 0 min 233 W/m 12,6 km/h (3 Bft)
06.06.2015 15:42 24,0 C 21,7 C 52 % 0 lf 1024,2 hPa 0,0 l/m 0 min 0 min 327 W/m 20,9 km/h (4 Bft)
06.06.2015 15:44 23,9 C 22,2 C 53 % 0 lf 1024,2 hPa 0,0 l/m 2 min 0 min 818 W/m 23,0 km/h (4 Bft)
06.06.2015 15:46 24,0 C 22,8 C 54 % 0 lf 1024,2 hPa 0,0 l/m 2 min 0 min 801 W/m 16,7 km/h (3 Bft)
06.06.2015 15:48 23,9 C 22,8 C 52 % 0 lf 1024,1 hPa 0,0 l/m 2 min 0 min 801 W/m 23,0 km/h (4 Bft)
06.06.2015 15:50 24,0 C 22,8 C 52 % 0 lf 1024,3 hPa 0,0 l/m 2 min 0 min 798 W/m 16,7 km/h (3 Bft)
06.06.2015 15:52 23,9 C 22,8 C 50 % 0 lf 1024,3 hPa 0,0 l/m 2 min 0 min 793 W/m 20,9 km/h (4 Bft)
06.06.2015 15:54 23,9 C 22,8 C 50 % 0 lf 1024,2 hPa 0,0 l/m 2 min 0 min 777 W/m 18,8 km/h (3 Bft)
06.06.2015 15:56 23,9 C 23,3 C 52 % 0 lf 1024,2 hPa 0,0 l/m 2 min 0 min 788 W/m 12,6 km/h (3 Bft)
06.06.2015 15:58 24,0 C 22,8 C 49 % 0 lf 1024,2 hPa 0,0 l/m 2 min 0 min 781 W/m 16,7 km/h (3 Bft)
06.06.2015 16:00 24,0 C 22,8 C 51 % 0 lf 1024,2 hPa 0,0 l/m 2 min 0 min 769 W/m 8,4 km/h (2 Bft)
06.06.2015 16:02 24,1 C 23,3 C 52 % 0 lf 1024,3 hPa 0,0 l/m 2 min 0 min 768 W/m 12,6 km/h (3 Bft)
06.06.2015 16:04 24,1 C 24,4 C 49 % 0 lf 1024,2 hPa 0,0 l/m 2 min 0 min 759 W/m 23,0 km/h (4 Bft)
06.06.2015 16:06 24,1 C 25,6 C 49 % 0 lf 1024,2 hPa 0,0 l/m 2 min 0 min 751 W/m 23,0 km/h (4 Bft)
06.06.2015 16:08 24,1 C 26,7 C 50 % 0 lf 1024,3 hPa 0,0 l/m 2 min 0 min 748 W/m 20,9 km/h (4 Bft)
06.06.2015 16:10 24,1 C 26,7 C 50 % 0 lf 1024,2 hPa 0,0 l/m 2 min 0 min 756 W/m 18,8 km/h (3 Bft)
06.06.2015 16:12 24,1 C 27,2 C 49 % 0 lf 1024,3 hPa 0,0 l/m 2 min 0 min 756 W/m 10,5 km/h (2 Bft)
06.06.2015 16:14 24,1 C 27,2 C 49 % 0 lf 1024,2 hPa 0,0 l/m 2 min 0 min 750 W/m 18,8 km/h (3 Bft)
06.06.2015 16:16 24,2 C 28,9 C 51 % 0 lf 1024,2 hPa 0,0 l/m 2 min 0 min 753 W/m 14,6 km/h (3 Bft)
06.06.2015 16:18 24,2 C 29,4 C 49 % 0 lf 1024,2 hPa 0,0 l/m 2 min 0 min 745 W/m 18,8 km/h (3 Bft)
06.06.2015 16:20 24,2 C 28,3 C 50 % 0 lf 1024,3 hPa 0,0 l/m 2 min 0 min 730 W/m 25,1 km/h (4 Bft)
06.06.2015 16:22 24,2 C 27,8 C 51 % 0 lf 1024,2 hPa 0,0 l/m 2 min 0 min 725 W/m 31,4 km/h (5 Bft)
06.06.2015 16:24 24,2 C 27,8 C 51 % 0 lf 1024,2 hPa 0,0 l/m 2 min 0 min 706 W/m 14,6 km/h (3 Bft)
06.06.2015 16:26 24,2 C 27,8 C 50 % 0 lf 1024,3 hPa 0,0 l/m 2 min 0 min 718 W/m 20,9 km/h (4 Bft)
06.06.2015 16:28 24,2 C 27,8 C 48 % 0 lf 1024,3 hPa 0,0 l/m 2 min 0 min 708 W/m 16,7 km/h (3 Bft)
06.06.2015 16:30 24,1 C 26,7 C 48 % 0 lf 1024,2 hPa 0,0 l/m 2 min 0 min 704 W/m 16,7 km/h (3 Bft)
06.06.2015 16:32 24,1 C 25,6 C 49 % 0 lf 1024,2 hPa 0,0 l/m 2 min 0 min 704 W/m 8,4 km/h (2 Bft)
06.06.2015 16:34 24,1 C 24,4 C 49 % 0 lf 1024,3 hPa 0,0 l/m 2 min 0 min 705 W/m 14,6 km/h (3 Bft)
06.06.2015 16:36 24,2 C 23,9 C 50 % 0 lf 1024,3 hPa 0,0 l/m 2 min 0 min 698 W/m 14,6 km/h (3 Bft)
06.06.2015 16:38 24,2 C 23,9 C 50 % 0 lf 1024,3 hPa 0,0 l/m 2 min 0 min 692 W/m 16,7 km/h (3 Bft)
06.06.2015 16:40 24,2 C 23,3 C 48 % 0 lf 1024,3 hPa 0,0 l/m 2 min 0 min 682 W/m 10,5 km/h (2 Bft)
06.06.2015 16:42 24,3 C 23,3 C 49 % 0 lf 1024,4 hPa 0,0 l/m 2 min 0 min 662 W/m 14,6 km/h (3 Bft)
06.06.2015 16:44 24,2 C 22,8 C 49 % 0 lf 1024,3 hPa 0,0 l/m 2 min 0 min 666 W/m 14,6 km/h (3 Bft)
06.06.2015 16:46 24,2 C 22,8 C 49 % 0 lf 1024,2 hPa 0,0 l/m 2 min 0 min 669 W/m 18,8 km/h (3 Bft)
06.06.2015 16:48 24,2 C 22,8 C 48 % 0 lf 1024,3 hPa 0,0 l/m 2 min 0 min 673 W/m 14,6 km/h (3 Bft)
06.06.2015 16:50 24,2 C 22,8 C 49 % 0 lf 1024,2 hPa 0,0 l/m 2 min 0 min 665 W/m 14,6 km/h (3 Bft)
06.06.2015 16:52 24,2 C 22,8 C 50 % 0 lf 1024,3 hPa 0,0 l/m 2 min 0 min 660 W/m 14,6 km/h (3 Bft)
06.06.2015 16:54 24,2 C 22,8 C 51 % 0 lf 1024,3 hPa 0,0 l/m 2 min 0 min 657 W/m 16,7 km/h (3 Bft)
06.06.2015 16:56 24,2 C 22,2 C 49 % 0 lf 1024,3 hPa 0,0 l/m 2 min 0 min 659 W/m 14,6 km/h (3 Bft)
06.06.2015 16:58 24,2 C 20,0 C 50 % 0 lf 1024,3 hPa 0,0 l/m 2 min 0 min 640 W/m 14,6 km/h (3 Bft)
06.06.2015 17:00 24,2 C 18,3 C 52 % 0 lf 1024,4 hPa 0,0 l/m 2 min 0 min 647 W/m 12,6 km/h (3 Bft)
06.06.2015 17:02 24,2 C 17,8 C 48 % 0 lf 1024,3 hPa 0,0 l/m 2 min 0 min 653 W/m 16,7 km/h (3 Bft)
06.06.2015 17:04 24,2 C 16,7 C 48 % 0 lf 1024,4 hPa 0,0 l/m 2 min 0 min 634 W/m 16,7 km/h (3 Bft)
06.06.2015 17:06 24,1 C 15,6 C 47 % 0 lf 1024,3 hPa 0,0 l/m 2 min 0 min 587 W/m 8,4 km/h (2 Bft)
06.06.2015 17:08 24,0 C 15,6 C 50 % 0 lf 1024,4 hPa 0,0 l/m 2 min 0 min 583 W/m 25,1 km/h (4 Bft)
06.06.2015 17:10 23,9 C 15,6 C 50 % 0 lf 1024,3 hPa 0,0 l/m 2 min 0 min 604 W/m 14,6 km/h (3 Bft)
06.06.2015 17:12 23,9 C 16,1 C 51 % 0 lf 1024,3 hPa 0,0 l/m 2 min 0 min 610 W/m 16,7 km/h (3 Bft)
06.06.2015 17:14 23,8 C 16,1 C 51 % 0 lf 1024,4 hPa 0,0 l/m 2 min 0 min 603 W/m 14,6 km/h (3 Bft)
06.06.2015 17:16 23,8 C 15,6 C 50 % 0 lf 1024,4 hPa 0,0 l/m 2 min 0 min 605 W/m 18,8 km/h (3 Bft)
06.06.2015 17:18 23,7 C 15,6 C 49 % 0 lf 1024,4 hPa 0,0 l/m 2 min 0 min 600 W/m 10,5 km/h (2 Bft)
06.06.2015 17:20 23,7 C 16,1 C 50 % 0 lf 1024,4 hPa 0,0 l/m 2 min 0 min 589 W/m 10,5 km/h (2 Bft)
06.06.2015 17:22 23,7 C 16,7 C 50 % 0 lf 1024,3 hPa 0,0 l/m 2 min 0 min 589 W/m 8,4 km/h (2 Bft)
06.06.2015 17:24 23,7 C 16,7 C 51 % 0 lf 1024,4 hPa 0,0 l/m 2 min 0 min 587 W/m 10,5 km/h (2 Bft)
06.06.2015 17:26 23,7 C 17,8 C 49 % 0 lf 1024,4 hPa 0,0 l/m 2 min 0 min 581 W/m 18,8 km/h (3 Bft)
06.06.2015 17:28 23,7 C 17,8 C 49 % 0 lf 1024,3 hPa 0,0 l/m 2 min 0 min 573 W/m 10,5 km/h (2 Bft)
06.06.2015 17:30 23,7 C 18,3 C 50 % 0 lf 1024,2 hPa 0,0 l/m 2 min 0 min 569 W/m 14,6 km/h (3 Bft)
06.06.2015 17:32 23,6 C 18,9 C 50 % 0 lf 1024,2 hPa 0,0 l/m 2 min 0 min 565 W/m 14,6 km/h (3 Bft)
06.06.2015 17:34 23,6 C 18,9 C 49 % 0 lf 1024,3 hPa 0,0 l/m 2 min 0 min 559 W/m 16,7 km/h (3 Bft)
06.06.2015 17:36 23,6 C 18,9 C 50 % 0 lf 1024,3 hPa 0,0 l/m 2 min 0 min 557 W/m 20,9 km/h (4 Bft)
06.06.2015 17:38 23,6 C 18,9 C 49 % 0 lf 1024,4 hPa 0,0 l/m 2 min 0 min 550 W/m 23,0 km/h (4 Bft)
06.06.2015 17:40 23,5 C 18,9 C 49 % 0 lf 1024,3 hPa 0,0 l/m 2 min 0 min 539 W/m 20,9 km/h (4 Bft)
06.06.2015 17:42 23,4 C 18,9 C 48 % 0 lf 1024,2 hPa 0,0 l/m 2 min 0 min 532 W/m 14,6 km/h (3 Bft)
06.06.2015 17:44 23,4 C 18,9 C 49 % 0 lf 1024,1 hPa 0,0 l/m 2 min 0 min 529 W/m 10,5 km/h (2 Bft)
06.06.2015 17:46 23,4 C 18,9 C 49 % 0 lf 1024,1 hPa 0,0 l/m 2 min 0 min 522 W/m 12,6 km/h (3 Bft)
06.06.2015 17:48 23,3 C 18,9 C 49 % 0 lf 1024,3 hPa 0,0 l/m 2 min 0 min 523 W/m 29,3 km/h (5 Bft)
06.06.2015 17:50 23,2 C 18,9 C 49 % 0 lf 1024,2 hPa 0,0 l/m 2 min 0 min 525 W/m 23,0 km/h (4 Bft)
06.06.2015 17:52 23,2 C 18,9 C 49 % 0 lf 1024,2 hPa 0,0 l/m 2 min 0 min 519 W/m 20,9 km/h (4 Bft)
06.06.2015 17:54 23,1 C 19,4 C 49 % 0 lf 1024,1 hPa 0,0 l/m 2 min 0 min 511 W/m 23,0 km/h (4 Bft)
06.06.2015 17:56 23,0 C 18,9 C 49 % 0 lf 1024,2 hPa 0,0 l/m 2 min 0 min 506 W/m 16,7 km/h (3 Bft)
06.06.2015 17:58 22,9 C 18,9 C 48 % 0 lf 1024,2 hPa 0,0 l/m 2 min 0 min 503 W/m 16,7 km/h (3 Bft)
06.06.2015 18:00 22,8 C 18,9 C 49 % 0 lf 1024,2 hPa 0,0 l/m 2 min 0 min 499 W/m 12,6 km/h (3 Bft)
06.06.2015 18:02 22,7 C 18,9 C 50 % 0 lf 1024,2 hPa 0,0 l/m 2 min 0 min 495 W/m 14,6 km/h (3 Bft)
06.06.2015 18:06 22,5 C 18,9 C 50 % 0 lf 1024,1 hPa 0,0 l/m 2 min 0 min 486 W/m 14,6 km/h (3 Bft)
06.06.2015 18:08 22,4 C 18,9 C 50 % 0 lf 1024,2 hPa 0,0 l/m 2 min 0 min 475 W/m 14,6 km/h (3 Bft)
06.06.2015 18:10 22,4 C 18,9 C 51 % 0 lf 1024,1 hPa 0,0 l/m 2 min 0 min 469 W/m 16,7 km/h (3 Bft)
06.06.2015 18:12 22,3 C 18,9 C 52 % 0 lf 1024,1 hPa 0,0 l/m 2 min 0 min 466 W/m 16,7 km/h (3 Bft)
06.06.2015 18:14 22,3 C 18,9 C 50 % 0 lf 1024,1 hPa 0,0 l/m 2 min 0 min 459 W/m 18,8 km/h (3 Bft)
06.06.2015 18:16 22,2 C 18,9 C 50 % 0 lf 1024,2 hPa 0,0 l/m 2 min 0 min 452 W/m 23,0 km/h (4 Bft)
06.06.2015 18:18 22,2 C 18,9 C 50 % 0 lf 1024,2 hPa 0,0 l/m 2 min 0 min 447 W/m 20,9 km/h (4 Bft)
06.06.2015 18:20 22,1 C 18,9 C 50 % 0 lf 1024,2 hPa 0,0 l/m 2 min 0 min 441 W/m 18,8 km/h (3 Bft)
06.06.2015 18:22 22,1 C 18,9 C 50 % 0 lf 1024,2 hPa 0,0 l/m 2 min 0 min 432 W/m 18,8 km/h (3 Bft)
06.06.2015 18:24 22,0 C 18,9 C 50 % 0 lf 1024,2 hPa 0,0 l/m 2 min 0 min 427 W/m 16,7 km/h (3 Bft)
06.06.2015 18:26 21,9 C 18,9 C 50 % 0 lf 1024,2 hPa 0,0 l/m 2 min 0 min 423 W/m 20,9 km/h (4 Bft)
06.06.2015 18:28 21,9 C 18,9 C 51 % 0 lf 1024,3 hPa 0,0 l/m 2 min 0 min 419 W/m 14,6 km/h (3 Bft)
06.06.2015 18:30 21,8 C 18,9 C 50 % 0 lf 1024,2 hPa 0,0 l/m 2 min 0 min 416 W/m 16,7 km/h (3 Bft)
06.06.2015 18:32 21,8 C 18,9 C 50 % 0 lf 1024,2 hPa 0,0 l/m 2 min 0 min 411 W/m 18,8 km/h (3 Bft)
06.06.2015 18:34 21,7 C 18,9 C 50 % 0 lf 1024,3 hPa 0,0 l/m 2 min 0 min 406 W/m 18,8 km/h (3 Bft)
06.06.2015 18:36 21,7 C 18,9 C 51 % 0 lf 1024,2 hPa 0,0 l/m 2 min 0 min 401 W/m 20,9 km/h (4 Bft)
06.06.2015 18:38 21,6 C 18,9 C 50 % 0 lf 1024,2 hPa 0,0 l/m 2 min 0 min 394 W/m 18,8 km/h (3 Bft)
06.06.2015 18:40 21,6 C 18,9 C 50 % 0 lf 1024,2 hPa 0,0 l/m 2 min 0 min 388 W/m 23,0 km/h (4 Bft)
06.06.2015 18:42 21,6 C 18,9 C 49 % 0 lf 1024,2 hPa 0,0 l/m 2 min 0 min 383 W/m 18,8 km/h (3 Bft)
06.06.2015 18:44 21,5 C 18,9 C 49 % 0 lf 1024,1 hPa 0,0 l/m 2 min 0 min 379 W/m 12,6 km/h (3 Bft)
06.06.2015 18:46 21,4 C 18,9 C 50 % 0 lf 1024,2 hPa 0,0 l/m 2 min 0 min 376 W/m 18,8 km/h (3 Bft)
06.06.2015 18:48 21,4 C 18,9 C 50 % 0 lf 1024,2 hPa 0,0 l/m 2 min 0 min 369 W/m 16,7 km/h (3 Bft)
06.06.2015 18:50 21,4 C 18,9 C 49 % 0 lf 1024,2 hPa 0,0 l/m 2 min 0 min 364 W/m 14,6 km/h (3 Bft)
06.06.2015 18:52 21,3 C 18,9 C 49 % 0 lf 1024,2 hPa 0,0 l/m 2 min 0 min 360 W/m 16,7 km/h (3 Bft)
06.06.2015 18:54 21,3 C 18,9 C 48 % 0 lf 1024,1 hPa 0,0 l/m 2 min 0 min 358 W/m 12,6 km/h (3 Bft)
06.06.2015 18:56 21,3 C 18,9 C 48 % 0 lf 1024,1 hPa 0,0 l/m 2 min 0 min 352 W/m 18,8 km/h (3 Bft)
06.06.2015 18:58 21,2 C 18,9 C 47 % 0 lf 1024,2 hPa 0,0 l/m 2 min 0 min 348 W/m 20,9 km/h (4 Bft)
06.06.2015 19:00 21,2 C 18,3 C 47 % 0 lf 1024,3 hPa 0,0 l/m 2 min 0 min 343 W/m 20,9 km/h (4 Bft)
06.06.2015 19:02 21,2 C 18,3 C 47 % 0 lf 1024,3 hPa 0,0 l/m 2 min 0 min 336 W/m 20,9 km/h (4 Bft)
06.06.2015 19:04 21,2 C 18,3 C 48 % 0 lf 1024,3 hPa 0,0 l/m 2 min 0 min 330 W/m 16,7 km/h (3 Bft)
06.06.2015 19:06 21,1 C 18,3 C 47 % 0 lf 1024,3 hPa 0,0 l/m 2 min 0 min 323 W/m 16,7 km/h (3 Bft)
06.06.2015 19:08 21,1 C 18,3 C 47 % 0 lf 1024,2 hPa 0,0 l/m 2 min 0 min 316 W/m 20,9 km/h (4 Bft)
06.06.2015 19:10 21,1 C 18,3 C 47 % 0 lf 1024,2 hPa 0,0 l/m 2 min 0 min 312 W/m 16,7 km/h (3 Bft)
06.06.2015 19:12 21,1 C 18,3 C 47 % 0 lf 1024,3 hPa 0,0 l/m 2 min 0 min 309 W/m 16,7 km/h (3 Bft)
06.06.2015 19:14 21,0 C 18,3 C 47 % 0 lf 1024,3 hPa 0,0 l/m 2 min 0 min 305 W/m 12,6 km/h (3 Bft)
06.06.2015 19:16 21,0 C 18,3 C 47 % 0 lf 1024,3 hPa 0,0 l/m 2 min 0 min 298 W/m 16,7 km/h (3 Bft)
06.06.2015 19:18 21,0 C 18,3 C 47 % 0 lf 1024,3 hPa 0,0 l/m 2 min 0 min 294 W/m 18,8 km/h (3 Bft)
06.06.2015 19:20 21,0 C 18,3 C 48 % 0 lf 1024,3 hPa 0,0 l/m 2 min 0 min 290 W/m 20,9 km/h (4 Bft)
06.06.2015 19:22 20,9 C 18,3 C 48 % 0 lf 1024,3 hPa 0,0 l/m 2 min 0 min 284 W/m 10,5 km/h (2 Bft)
06.06.2015 19:24 20,9 C 18,3 C 48 % 0 lf 1024,3 hPa 0,0 l/m 2 min 0 min 277 W/m 16,7 km/h (3 Bft)
06.06.2015 19:26 20,9 C 18,3 C 47 % 0 lf 1024,3 hPa 0,0 l/m 2 min 0 min 273 W/m 16,7 km/h (3 Bft)
06.06.2015 19:28 20,9 C 18,3 C 48 % 0 lf 1024,4 hPa 0,0 l/m 2 min 0 min 267 W/m 16,7 km/h (3 Bft)
06.06.2015 19:30 20,9 C 18,3 C 48 % 0 lf 1024,4 hPa 0,0 l/m 2 min 0 min 260 W/m 18,8 km/h (3 Bft)
06.06.2015 19:32 20,8 C 18,3 C 47 % 0 lf 1024,4 hPa 0,0 l/m 2 min 0 min 252 W/m 16,7 km/h (3 Bft)
06.06.2015 19:34 20,8 C 18,3 C 47 % 0 lf 1024,4 hPa 0,0 l/m 2 min 0 min 245 W/m 14,6 km/h (3 Bft)
06.06.2015 19:36 20,8 C 18,3 C 47 % 0 lf 1024,4 hPa 0,0 l/m 2 min 0 min 237 W/m 12,6 km/h (3 Bft)
06.06.2015 19:38 20,7 C 18,3 C 47 % 0 lf 1024,4 hPa 0,0 l/m 2 min 0 min 231 W/m 14,6 km/h (3 Bft)
06.06.2015 19:40 20,7 C 18,3 C 47 % 0 lf 1024,5 hPa 0,0 l/m 2 min 0 min 227 W/m 14,6 km/h (3 Bft)
06.06.2015 19:42 20,7 C 18,3 C 47 % 0 lf 1024,5 hPa 0,0 l/m 2 min 0 min 219 W/m 16,7 km/h (3 Bft)
06.06.2015 19:44 20,7 C 18,3 C 47 % 0 lf 1024,5 hPa 0,0 l/m 2 min 0 min 211 W/m 12,6 km/h (3 Bft)
06.06.2015 19:46 20,7 C 18,3 C 47 % 0 lf 1024,6 hPa 0,0 l/m 2 min 0 min 206 W/m 14,6 km/h (3 Bft)
06.06.2015 19:48 20,6 C 18,3 C 48 % 0 lf 1024,5 hPa 0,0 l/m 2 min 0 min 200 W/m 14,6 km/h (3 Bft)
06.06.2015 19:50 20,6 C 18,3 C 48 % 0 lf 1024,6 hPa 0,0 l/m 2 min 0 min 192 W/m 12,6 km/h (3 Bft)
06.06.2015 19:52 20,6 C 17,8 C 48 % 0 lf 1024,6 hPa 0,0 l/m 2 min 0 min 186 W/m 18,8 km/h (3 Bft)
06.06.2015 19:54 20,6 C 18,3 C 48 % 0 lf 1024,6 hPa 0,0 l/m 2 min 0 min 180 W/m 12,6 km/h (3 Bft)
06.06.2015 19:56 20,5 C 18,3 C 48 % 0 lf 1024,7 hPa 0,0 l/m 2 min 0 min 175 W/m 10,5 km/h (2 Bft)
06.06.2015 19:58 20,5 C 18,3 C 48 % 0 lf 1024,7 hPa 0,0 l/m 2 min 0 min 168 W/m 12,6 km/h (3 Bft)
06.06.2015 20:00 20,4 C 17,8 C 48 % 0 lf 1024,6 hPa 0,0 l/m 2 min 0 min 164 W/m 12,6 km/h (3 Bft)
06.06.2015 20:02 20,4 C 17,8 C 49 % 0 lf 1024,7 hPa 0,0 l/m 2 min 0 min 160 W/m 16,7 km/h (3 Bft)
06.06.2015 20:04 20,4 C 17,8 C 49 % 0 lf 1024,8 hPa 0,0 l/m 2 min 0 min 155 W/m 14,6 km/h (3 Bft)
06.06.2015 20:06 20,3 C 17,8 C 48 % 0 lf 1024,8 hPa 0,0 l/m 2 min 0 min 145 W/m 18,8 km/h (3 Bft)
06.06.2015 20:08 20,3 C 17,8 C 47 % 0 lf 1024,8 hPa 0,0 l/m 2 min 0 min 139 W/m 20,9 km/h (4 Bft)
06.06.2015 20:10 20,2 C 17,8 C 47 % 0 lf 1024,8 hPa 0,0 l/m 2 min 0 min 134 W/m 16,7 km/h (3 Bft)
06.06.2015 20:12 20,2 C 17,8 C 48 % 0 lf 1024,8 hPa 0,0 l/m 2 min 0 min 131 W/m 16,7 km/h (3 Bft)
06.06.2015 20:14 20,2 C 17,8 C 48 % 0 lf 1024,9 hPa 0,0 l/m 2 min 0 min 125 W/m 14,6 km/h (3 Bft)
06.06.2015 20:16 20,1 C 17,8 C 47 % 0 lf 1024,9 hPa 0,0 l/m 2 min 0 min 121 W/m 14,6 km/h (3 Bft)
06.06.2015 20:18 20,1 C 17,2 C 47 % 0 lf 1024,9 hPa 0,0 l/m 2 min 0 min 115 W/m 14,6 km/h (3 Bft)
06.06.2015 20:20 20,0 C 17,2 C 47 % 0 lf 1024,9 hPa 0,0 l/m 2 min 0 min 110 W/m 12,6 km/h (3 Bft)
06.06.2015 20:22 19,9 C 17,2 C 47 % 0 lf 1024,9 hPa 0,0 l/m 2 min 0 min 105 W/m 10,5 km/h (2 Bft)
06.06.2015 20:24 19,9 C 17,2 C 47 % 0 lf 1024,9 hPa 0,0 l/m 2 min 0 min 100 W/m 14,6 km/h (3 Bft)
06.06.2015 20:26 19,9 C 17,2 C 48 % 0 lf 1024,9 hPa 0,0 l/m 2 min 0 min 96 W/m 8,4 km/h (2 Bft)
06.06.2015 20:28 19,8 C 17,2 C 47 % 0 lf 1024,9 hPa 0,0 l/m 2 min 0 min 90 W/m 12,6 km/h (3 Bft)
06.06.2015 20:30 19,8 C 17,2 C 47 % 0 lf 1024,9 hPa 0,0 l/m 2 min 0 min 85 W/m 12,6 km/h (3 Bft)
06.06.2015 20:32 19,7 C 17,2 C 47 % 0 lf 1024,9 hPa 0,0 l/m 2 min 0 min 81 W/m 12,6 km/h (3 Bft)
06.06.2015 20:34 19,7 C 16,7 C 47 % 0 lf 1025,0 hPa 0,0 l/m 2 min 0 min 77 W/m 14,6 km/h (3 Bft)
06.06.2015 20:36 19,6 C 17,2 C 46 % 0 lf 1024,9 hPa 0,0 l/m 2 min 0 min 74 W/m 20,9 km/h (4 Bft)
06.06.2015 20:38 19,6 C 17,2 C 45 % 0 lf 1025,0 hPa 0,0 l/m 2 min 0 min 70 W/m 18,8 km/h (3 Bft)
06.06.2015 20:40 19,4 C 16,7 C 45 % 0 lf 1024,9 hPa 0,0 l/m 2 min 0 min 66 W/m 18,8 km/h (3 Bft)
06.06.2015 20:42 19,4 C 16,7 C 45 % 0 lf 1025,0 hPa 0,0 l/m 0 min 0 min 62 W/m 10,5 km/h (2 Bft)
06.06.2015 20:44 19,4 C 16,7 C 45 % 0 lf 1025,0 hPa 0,0 l/m 0 min 0 min 58 W/m 14,6 km/h (3 Bft)
06.06.2015 20:46 19,3 C 16,7 C 45 % 0 lf 1025,0 hPa 0,0 l/m 0 min 0 min 54 W/m 10,5 km/h (2 Bft)
06.06.2015 20:48 19,3 C 16,7 C 46 % 0 lf 1025,0 hPa 0,0 l/m 0 min 0 min 51 W/m 8,4 km/h (2 Bft)
06.06.2015 20:50 19,2 C 16,7 C 46 % 0 lf 1025,0 hPa 0,0 l/m 0 min 0 min 47 W/m 8,4 km/h (2 Bft)
06.06.2015 20:52 19,2 C 16,7 C 47 % 0 lf 1025,0 hPa 0,0 l/m 0 min 0 min 45 W/m 10,5 km/h (2 Bft)
06.06.2015 20:54 19,2 C 16,7 C 47 % 0 lf 1025,1 hPa 0,0 l/m 0 min 0 min 42 W/m 10,5 km/h (2 Bft)
06.06.2015 20:56 19,1 C 16,7 C 46 % 0 lf 1025,1 hPa 0,0 l/m 0 min 0 min 38 W/m 10,5 km/h (2 Bft)
06.06.2015 20:58 19,1 C 16,7 C 46 % 0 lf 1025,0 hPa 0,0 l/m 0 min 0 min 37 W/m 14,6 km/h (3 Bft)
06.06.2015 21:00 19,0 C 16,7 C 46 % 0 lf 1025,1 hPa 0,0 l/m 0 min 0 min 33 W/m 16,7 km/h (3 Bft)
06.06.2015 21:02 18,9 C 16,7 C 46 % 0 lf 1025,1 hPa 0,0 l/m 0 min 0 min 30 W/m 12,6 km/h (3 Bft)
06.06.2015 21:04 18,9 C 16,7 C 46 % 0 lf 1025,1 hPa 0,0 l/m 0 min 0 min 27 W/m 12,6 km/h (3 Bft)
06.06.2015 21:06 18,8 C 16,7 C 46 % 0 lf 1025,2 hPa 0,0 l/m 0 min 0 min 25 W/m 10,5 km/h (2 Bft)
06.06.2015 21:08 18,8 C 16,1 C 47 % 0 lf 1025,1 hPa 0,0 l/m 0 min 0 min 24 W/m 10,5 km/h (2 Bft)
06.06.2015 21:10 18,8 C 16,1 C 48 % 0 lf 1025,2 hPa 0,0 l/m 0 min 0 min 22 W/m 14,6 km/h (3 Bft)
06.06.2015 21:12 18,7 C 16,1 C 48 % 0 lf 1025,2 hPa 0,0 l/m 0 min 0 min 21 W/m 10,5 km/h (2 Bft)
06.06.2015 21:14 18,7 C 16,1 C 49 % 0 lf 1025,2 hPa 0,0 l/m 0 min 0 min 19 W/m 10,5 km/h (2 Bft)
06.06.2015 21:16 18,6 C 16,1 C 49 % 0 lf 1025,2 hPa 0,0 l/m 0 min 0 min 19 W/m 12,6 km/h (3 Bft)
06.06.2015 21:18 18,6 C 16,1 C 49 % 0 lf 1025,3 hPa 0,0 l/m 0 min 0 min 18 W/m 6,3 km/h (2 Bft)
06.06.2015 21:20 18,5 C 16,1 C 49 % 0 lf 1025,3 hPa 0,0 l/m 0 min 0 min 17 W/m 10,5 km/h (2 Bft)
06.06.2015 21:22 18,5 C 15,6 C 50 % 0 lf 1025,4 hPa 0,0 l/m 0 min 0 min 16 W/m 8,4 km/h (2 Bft)
06.06.2015 21:24 18,4 C 15,6 C 50 % 0 lf 1025,4 hPa 0,0 l/m 0 min 0 min 15 W/m 10,5 km/h (2 Bft)
06.06.2015 21:26 18,4 C 15,6 C 51 % 0 lf 1025,4 hPa 0,0 l/m 0 min 0 min 12 W/m 8,4 km/h (2 Bft)
06.06.2015 21:28 18,3 C 15,6 C 51 % 0 lf 1025,5 hPa 0,0 l/m 0 min 0 min 11 W/m 12,6 km/h (3 Bft)
06.06.2015 21:30 18,3 C 15,6 C 52 % 0 lf 1025,5 hPa 0,0 l/m 0 min 0 min 11 W/m 10,5 km/h (2 Bft)
06.06.2015 21:32 18,2 C 15,6 C 52 % 0 lf 1025,5 hPa 0,0 l/m 0 min 0 min 11 W/m 8,4 km/h (2 Bft)
06.06.2015 21:34 18,2 C 15,6 C 53 % 0 lf 1025,5 hPa 0,0 l/m 0 min 0 min 9 W/m 8,4 km/h (2 Bft)
06.06.2015 21:36 18,1 C 15,6 C 53 % 0 lf 1025,5 hPa 0,0 l/m 0 min 0 min 8 W/m 8,4 km/h (2 Bft)
06.06.2015 21:38 18,0 C 15,0 C 53 % 0 lf 1025,6 hPa 0,0 l/m 0 min 0 min 7 W/m 8,4 km/h (2 Bft)
06.06.2015 21:40 18,0 C 15,0 C 54 % 0 lf 1025,6 hPa 0,0 l/m 0 min 0 min 7 W/m 8,4 km/h (2 Bft)
06.06.2015 21:42 17,9 C 15,0 C 54 % 0 lf 1025,6 hPa 0,0 l/m 0 min 0 min 5 W/m 10,5 km/h (2 Bft)
06.06.2015 21:44 17,8 C 15,0 C 55 % 0 lf 1025,6 hPa 0,0 l/m 0 min 0 min 5 W/m 10,5 km/h (2 Bft)
06.06.2015 21:46 17,8 C 15,0 C 55 % 0 lf 1025,6 hPa 0,0 l/m 0 min 0 min 5 W/m 10,5 km/h (2 Bft)
06.06.2015 21:48 17,7 C 15,0 C 56 % 0 lf 1025,6 hPa 0,0 l/m 0 min 0 min 5 W/m 10,5 km/h (2 Bft)
06.06.2015 21:50 17,6 C 15,0 C 56 % 0 lf 1025,6 hPa 0,0 l/m 0 min 0 min 5 W/m 8,4 km/h (2 Bft)
06.06.2015 21:52 17,6 C 15,0 C 56 % 0 lf 1025,6 hPa 0,0 l/m 0 min 0 min 0 W/m 6,3 km/h (2 Bft)
06.06.2015 21:54 17,5 C 15,0 C 56 % 0 lf 1025,7 hPa 0,0 l/m 0 min 0 min 0 W/m 6,3 km/h (2 Bft)
06.06.2015 21:56 17,4 C 15,0 C 57 % 0 lf 1025,7 hPa 0,0 l/m 0 min 0 min 0 W/m 6,3 km/h (2 Bft)
06.06.2015 21:58 17,4 C 14,4 C 57 % 0 lf 1025,8 hPa 0,0 l/m 0 min 0 min 0 W/m 6,3 km/h (2 Bft)
06.06.2015 22:00 17,3 C 14,4 C 57 % 0 lf 1025,8 hPa 0,0 l/m 0 min 0 min 0 W/m 4,2 km/h (1 Bft)
06.06.2015 22:02 17,2 C 14,4 C 58 % 0 lf 1025,8 hPa 0,0 l/m 0 min 0 min 0 W/m 4,2 km/h (1 Bft)
06.06.2015 22:04 17,2 C 14,4 C 58 % 0 lf 1025,9 hPa 0,0 l/m 0 min 0 min 0 W/m 6,3 km/h (2 Bft)
06.06.2015 22:06 17,2 C 14,4 C 58 % 0 lf 1026,0 hPa 0,0 l/m 0 min 0 min 0 W/m 6,3 km/h (2 Bft)
06.06.2015 22:08 17,1 C 14,4 C 58 % 0 lf 1026,1 hPa 0,0 l/m 0 min 0 min 0 W/m 4,2 km/h (1 Bft)
06.06.2015 22:10 17,0 C 13,9 C 58 % 0 lf 1026,1 hPa 0,0 l/m 0 min 0 min 0 W/m 8,4 km/h (2 Bft)
06.06.2015 22:12 16,9 C 13,9 C 58 % 0 lf 1026,2 hPa 0,0 l/m 0 min 0 min 0 W/m 8,4 km/h (2 Bft)
06.06.2015 22:14 16,9 C 13,9 C 58 % 0 lf 1026,3 hPa 0,0 l/m 0 min 0 min 0 W/m 8,4 km/h (2 Bft)
06.06.2015 22:16 16,8 C 13,9 C 58 % 0 lf 1026,3 hPa 0,0 l/m 0 min 0 min 0 W/m 8,4 km/h (2 Bft)
06.06.2015 22:18 16,7 C 14,4 C 58 % 0 lf 1026,3 hPa 0,0 l/m 0 min 0 min 0 W/m 6,3 km/h (2 Bft)
06.06.2015 22:20 16,7 C 13,9 C 59 % 0 lf 1026,4 hPa 0,0 l/m 0 min 0 min 0 W/m 10,5 km/h (2 Bft)
06.06.2015 22:22 16,6 C 13,9 C 59 % 0 lf 1026,5 hPa 0,0 l/m 0 min 0 min 0 W/m 6,3 km/h (2 Bft)
06.06.2015 22:24 16,6 C 13,9 C 59 % 0 lf 1026,5 hPa 0,0 l/m 0 min 0 min 0 W/m 4,2 km/h (1 Bft)
06.06.2015 22:26 16,5 C 13,9 C 59 % 0 lf 1026,5 hPa 0,0 l/m 0 min 0 min 0 W/m 4,2 km/h (1 Bft)
06.06.2015 22:28 16,4 C 13,3 C 59 % 0 lf 1026,6 hPa 0,0 l/m 0 min 0 min 0 W/m 4,2 km/h (1 Bft)
06.06.2015 22:30 16,4 C 13,3 C 59 % 0 lf 1026,6 hPa 0,0 l/m 0 min 0 min 0 W/m 6,3 km/h (2 Bft)
06.06.2015 22:32 16,3 C 13,3 C 60 % 0 lf 1026,7 hPa 0,0 l/m 0 min 0 min 0 W/m 6,3 km/h (2 Bft)
06.06.2015 22:34 16,3 C 12,8 C 60 % 0 lf 1026,7 hPa 0,0 l/m 0 min 0 min 0 W/m 4,2 km/h (1 Bft)
06.06.2015 22:36 16,2 C 12,8 C 60 % 0 lf 1026,7 hPa 0,0 l/m 0 min 0 min 0 W/m 2,1 km/h (1 Bft)
06.06.2015 22:38 16,2 C 12,8 C 60 % 0 lf 1026,7 hPa 0,0 l/m 0 min 0 min 0 W/m 4,2 km/h (1 Bft)
06.06.2015 22:40 16,1 C 12,8 C 60 % 0 lf 1026,8 hPa 0,0 l/m 0 min 0 min 0 W/m 4,2 km/h (1 Bft)
06.06.2015 22:42 16,0 C 12,2 C 61 % 0 lf 1026,8 hPa 0,0 l/m 0 min 0 min 0 W/m 4,2 km/h (1 Bft)
06.06.2015 22:44 15,9 C 12,2 C 61 % 0 lf 1026,8 hPa 0,0 l/m 0 min 0 min 0 W/m 4,2 km/h (1 Bft)
06.06.2015 22:46 15,9 C 12,2 C 61 % 0 lf 1026,9 hPa 0,0 l/m 0 min 0 min 0 W/m 4,2 km/h (1 Bft)
06.06.2015 22:48 15,8 C 12,2 C 62 % 0 lf 1026,9 hPa 0,0 l/m 0 min 0 min 0 W/m 4,2 km/h (1 Bft)
06.06.2015 22:50 15,8 C 12,2 C 62 % 0 lf 1027,0 hPa 0,0 l/m 0 min 0 min 0 W/m 4,2 km/h (1 Bft)
06.06.2015 22:52 15,7 C 12,2 C 62 % 0 lf 1026,9 hPa 0,0 l/m 0 min 0 min 0 W/m 4,2 km/h (1 Bft)
06.06.2015 22:54 15,6 C 12,2 C 62 % 0 lf 1027,0 hPa 0,0 l/m 0 min 0 min 0 W/m 4,2 km/h (1 Bft)
06.06.2015 22:56 15,6 C 12,2 C 62 % 0 lf 1026,9 hPa 0,0 l/m 0 min 0 min 0 W/m 4,2 km/h (1 Bft)
06.06.2015 22:58 15,5 C 11,7 C 62 % 0 lf 1026,9 hPa 0,0 l/m 0 min 0 min 0 W/m 4,2 km/h (1 Bft)
06.06.2015 23:00 15,4 C 11,7 C 62 % 0 lf 1027,0 hPa 0,0 l/m 0 min 0 min 0 W/m 6,3 km/h (2 Bft)
06.06.2015 23:02 15,3 C 12,2 C 62 % 0 lf 1027,0 hPa 0,0 l/m 0 min 0 min 0 W/m 4,2 km/h (1 Bft)
06.06.2015 23:04 15,3 C 11,7 C 63 % 0 lf 1027,1 hPa 0,0 l/m 0 min 0 min 0 W/m 4,2 km/h (1 Bft)
06.06.2015 23:06 15,2 C 11,7 C 63 % 0 lf 1027,1 hPa 0,0 l/m 0 min 0 min 0 W/m 4,2 km/h (1 Bft)
06.06.2015 23:08 15,2 C 11,7 C 63 % 0 lf 1027,0 hPa 0,0 l/m 0 min 0 min 0 W/m 4,2 km/h (1 Bft)
06.06.2015 23:10 15,1 C 11,7 C 63 % 0 lf 1027,1 hPa 0,0 l/m 0 min 0 min 0 W/m 4,2 km/h (1 Bft)
06.06.2015 23:12 15,0 C 11,7 C 63 % 0 lf 1027,1 hPa 0,0 l/m 0 min 0 min 0 W/m 4,2 km/h (1 Bft)
06.06.2015 23:14 15,0 C 11,7 C 63 % 0 lf 1027,1 hPa 0,0 l/m 0 min 0 min 0 W/m 8,4 km/h (2 Bft)
06.06.2015 23:16 14,9 C 11,7 C 63 % 0 lf 1027,1 hPa 0,0 l/m 0 min 0 min 0 W/m 6,3 km/h (2 Bft)
06.06.2015 23:18 14,8 C 11,7 C 63 % 0 lf 1027,0 hPa 0,0 l/m 0 min 0 min 0 W/m 4,2 km/h (1 Bft)
06.06.2015 23:20 14,8 C 11,7 C 63 % 0 lf 1027,1 hPa 0,0 l/m 0 min 0 min 0 W/m 4,2 km/h (1 Bft)
06.06.2015 23:22 14,7 C 11,7 C 63 % 0 lf 1027,0 hPa 0,0 l/m 0 min 0 min 0 W/m 2,1 km/h (1 Bft)
06.06.2015 23:24 14,7 C 11,7 C 63 % 0 lf 1027,0 hPa 0,0 l/m 0 min 0 min 0 W/m 4,2 km/h (1 Bft)
06.06.2015 23:26 14,6 C 11,1 C 63 % 0 lf 1027,0 hPa 0,0 l/m 0 min 0 min 0 W/m 4,2 km/h (1 Bft)
06.06.2015 23:28 14,6 C 11,1 C 63 % 0 lf 1027,0 hPa 0,0 l/m 0 min 0 min 0 W/m 4,2 km/h (1 Bft)
06.06.2015 23:30 14,5 C 11,1 C 63 % 0 lf 1027,0 hPa 0,0 l/m 0 min 0 min 0 W/m 2,1 km/h (1 Bft)
06.06.2015 23:32 14,4 C 11,1 C 64 % 0 lf 1027,0 hPa 0,0 l/m 0 min 0 min 0 W/m 2,1 km/h (1 Bft)
06.06.2015 23:34 14,4 C 11,1 C 64 % 0 lf 1027,0 hPa 0,0 l/m 0 min 0 min 0 W/m 2,1 km/h (1 Bft)
06.06.2015 23:36 14,3 C 11,1 C 64 % 0 lf 1027,0 hPa 0,0 l/m 0 min 0 min 0 W/m 0,0 km/h (0 Bft)
06.06.2015 23:38 14,3 C 10,6 C 64 % 0 lf 1027,0 hPa 0,0 l/m 0 min 0 min 0 W/m 2,1 km/h (1 Bft)
06.06.2015 23:40 14,2 C 10,6 C 64 % 0 lf 1027,0 hPa 0,0 l/m 0 min 0 min 0 W/m 2,1 km/h (1 Bft)
06.06.2015 23:42 14,2 C 10,6 C 65 % 0 lf 1027,0 hPa 0,0 l/m 0 min 0 min 0 W/m 2,1 km/h (1 Bft)
06.06.2015 23:44 14,2 C 10,6 C 65 % 0 lf 1027,0 hPa 0,0 l/m 0 min 0 min 0 W/m 2,1 km/h (1 Bft)
06.06.2015 23:46 14,1 C 10,6 C 66 % 0 lf 1027,1 hPa 0,0 l/m 0 min 0 min 0 W/m 2,1 km/h (1 Bft)
06.06.2015 23:48 14,0 C 10,6 C 66 % 0 lf 1027,1 hPa 0,0 l/m 0 min 0 min 0 W/m 2,1 km/h (1 Bft)
06.06.2015 23:50 13,9 C 10,6 C 66 % 0 lf 1027,2 hPa 0,0 l/m 0 min 0 min 0 W/m 2,1 km/h (1 Bft)
06.06.2015 23:52 13,9 C 10,6 C 66 % 0 lf 1027,2 hPa 0,0 l/m 0 min 0 min 0 W/m 2,1 km/h (1 Bft)
06.06.2015 23:54 13,8 C 10,6 C 66 % 0 lf 1027,2 hPa 0,0 l/m 0 min 0 min 0 W/m 2,1 km/h (1 Bft)
06.06.2015 23:56 13,8 C 10,6 C 66 % 0 lf 1027,3 hPa 0,0 l/m 0 min 0 min 0 W/m 0,0 km/h (0 Bft)
06.06.2015 23:58 13,7 C 10,6 C 67 % 0 lf 1027,3 hPa 0,0 l/m 0 min 0 min 0 W/m 2,1 km/h (1 Bft)
_ Min-Zeit 23:58 23:38 20:38 06:32 01:02 - - - - 23:36
Minimum _ 13,7 C 10,6 C 45 % 0 lf 1015,8 hPa - - - - 0,0 km/h (0 Bft)
_ Max-Zeit 15:26 16:18 05:00 00:00 23:56 00:36 09:14 00:00 13:24 07:44
Maximum _ 24,3 C 29,4 C 97 % 15 lf 1027,3 hPa 1,8 l/m 2 min 2 min 1123 W/m 35,6 km/h
NW (5 Bft)
Durchschnitt _ 19,4 C 17,5 C 73 % 4 lf 1022,0 hPa #2,6 l/m #8:02 h #36 min. 351 W/m 14,2 km/h (3 Bft)
© 2015 W. Hausmann